Wetterdaten: Freitag, 29.07.2022
Datum Zeit Temp. Aussen Temp. o. S. Temp +5cm Feuchte Auss Luftdruck Regen Sonnenschein Regendauer Solar Windben Empfang
29.07.2022 00:00 20,7 C 19,4 C 16,1 C 60 % 1016,4 hPa 0,0 l/m 0 min 0 min 0 W/m 9,7 km/h (2 Bft) 100,00 %
29.07.2022 00:02 20,6 C 19,4 C 16,1 C 60 % 1016,4 hPa 0,0 l/m 0 min 0 min 0 W/m 6,4 km/h (2 Bft) 97,44 %
29.07.2022 00:04 20,6 C 19,4 C 16,1 C 60 % 1016,4 hPa 0,0 l/m 0 min 0 min 0 W/m 6,4 km/h (2 Bft) 100,00 %
29.07.2022 00:08 20,6 C 19,4 C 16,1 C 60 % 1016,4 hPa 0,0 l/m 0 min 0 min 0 W/m 16,1 km/h (3 Bft) 100,00 %
29.07.2022 00:10 20,6 C 19,4 C 16,1 C 60 % 1016,4 hPa 0,0 l/m 0 min 0 min 0 W/m 9,7 km/h (2 Bft) 100,00 %
29.07.2022 00:12 20,5 C 19,4 C 16,1 C 60 % 1016,4 hPa 0,0 l/m 0 min 0 min 0 W/m 12,9 km/h (3 Bft) 95,74 %
29.07.2022 00:14 20,5 C 19,4 C 16,1 C 60 % 1016,3 hPa 0,0 l/m 0 min 0 min 0 W/m 6,4 km/h (2 Bft) 100,00 %
29.07.2022 00:16 20,4 C 19,4 C 16,1 C 60 % 1016,4 hPa 0,0 l/m 0 min 0 min 0 W/m 6,4 km/h (2 Bft) 100,00 %
29.07.2022 00:18 20,4 C 19,4 C 16,1 C 60 % 1016,4 hPa 0,0 l/m 0 min 0 min 0 W/m 6,4 km/h (2 Bft) 100,00 %
29.07.2022 00:20 20,4 C 19,4 C 16,1 C 60 % 1016,4 hPa 0,0 l/m 0 min 0 min 0 W/m 6,4 km/h (2 Bft) 100,00 %
29.07.2022 00:22 20,4 C 19,4 C 16,1 C 60 % 1016,4 hPa 0,0 l/m 0 min 0 min 0 W/m 9,7 km/h (2 Bft) 97,87 %
29.07.2022 00:24 20,4 C 19,4 C 16,1 C 60 % 1016,4 hPa 0,0 l/m 0 min 0 min 0 W/m 12,9 km/h (3 Bft) 97,87 %
29.07.2022 00:26 20,4 C 19,4 C 15,6 C 60 % 1016,4 hPa 0,0 l/m 0 min 0 min 0 W/m 6,4 km/h (2 Bft) 95,65 %
29.07.2022 00:28 20,3 C 19,4 C 15,6 C 61 % 1016,4 hPa 0,0 l/m 0 min 0 min 0 W/m 12,9 km/h (3 Bft) 97,87 %
29.07.2022 00:30 20,3 C 19,4 C 15,6 C 60 % 1016,4 hPa 0,0 l/m 0 min 0 min 0 W/m 12,9 km/h (3 Bft) 97,87 %
29.07.2022 00:32 20,3 C 19,4 C 15,6 C 60 % 1016,4 hPa 0,0 l/m 0 min 0 min 0 W/m 9,7 km/h (2 Bft) 97,87 %
29.07.2022 00:34 20,3 C 19,4 C 15,6 C 60 % 1016,4 hPa 0,0 l/m 0 min 0 min 0 W/m 9,7 km/h (2 Bft) 95,74 %
29.07.2022 00:36 20,3 C 19,4 C 15,6 C 61 % 1016,3 hPa 0,0 l/m 0 min 0 min 0 W/m 6,4 km/h (2 Bft) 97,87 %
29.07.2022 00:38 20,2 C 19,4 C 15,6 C 61 % 1016,4 hPa 0,0 l/m 0 min 0 min 0 W/m 6,4 km/h (2 Bft) 97,83 %
29.07.2022 00:40 20,2 C 18,9 C 15,6 C 61 % 1016,3 hPa 0,0 l/m 0 min 0 min 0 W/m 6,4 km/h (2 Bft) 95,74 %
29.07.2022 00:42 20,2 C 18,9 C 15,6 C 60 % 1016,3 hPa 0,0 l/m 0 min 0 min 0 W/m 9,7 km/h (2 Bft) 93,62 %
29.07.2022 00:44 20,2 C 18,9 C 15,6 C 61 % 1016,3 hPa 0,0 l/m 0 min 0 min 0 W/m 19,3 km/h (3 Bft) 95,74 %
29.07.2022 00:46 20,2 C 18,9 C 15,6 C 61 % 1016,3 hPa 0,0 l/m 0 min 0 min 0 W/m 12,9 km/h (3 Bft) 93,62 %
29.07.2022 00:48 20,1 C 18,9 C 15,6 C 61 % 1016,3 hPa 0,0 l/m 0 min 0 min 0 W/m 6,4 km/h (2 Bft) 95,74 %
29.07.2022 00:50 20,1 C 18,9 C 15,6 C 61 % 1016,2 hPa 0,0 l/m 0 min 0 min 0 W/m 9,7 km/h (2 Bft) 97,83 %
29.07.2022 00:52 20,1 C 18,9 C 15,6 C 61 % 1016,3 hPa 0,0 l/m 0 min 0 min 0 W/m 6,4 km/h (2 Bft) 93,62 %
29.07.2022 00:54 20,1 C 18,9 C 15,6 C 61 % 1016,2 hPa 0,0 l/m 0 min 0 min 0 W/m 6,4 km/h (2 Bft) 95,74 %
29.07.2022 00:56 20,1 C 18,9 C 15,6 C 61 % 1016,3 hPa 0,0 l/m 0 min 0 min 0 W/m 9,7 km/h (2 Bft) 95,74 %
29.07.2022 00:58 20,0 C 18,9 C 15,6 C 61 % 1016,3 hPa 0,0 l/m 0 min 0 min 0 W/m 9,7 km/h (2 Bft) 95,74 %
29.07.2022 01:00 20,0 C 18,9 C 15,6 C 61 % 1016,3 hPa 0,0 l/m 0 min 0 min 0 W/m 12,9 km/h (3 Bft) 95,74 %
29.07.2022 01:02 20,0 C 18,9 C 15,6 C 61 % 1016,2 hPa 0,0 l/m 0 min 0 min 0 W/m 9,7 km/h (2 Bft) 95,74 %
29.07.2022 01:04 19,9 C 18,9 C 15,6 C 61 % 1016,3 hPa 0,0 l/m 0 min 0 min 0 W/m 6,4 km/h (2 Bft) 95,65 %
29.07.2022 01:06 19,9 C 18,9 C 15,6 C 62 % 1016,3 hPa 0,0 l/m 0 min 0 min 0 W/m 6,4 km/h (2 Bft) 93,62 %
29.07.2022 01:08 19,9 C 18,9 C 15,6 C 62 % 1016,2 hPa 0,0 l/m 0 min 0 min 0 W/m 6,4 km/h (2 Bft) 97,87 %
29.07.2022 01:10 19,9 C 18,9 C 15,6 C 61 % 1016,3 hPa 0,0 l/m 0 min 0 min 0 W/m 16,1 km/h (3 Bft) 95,74 %
29.07.2022 01:12 19,9 C 18,9 C 15,6 C 62 % 1016,3 hPa 0,0 l/m 0 min 0 min 0 W/m 6,4 km/h (2 Bft) 95,74 %
29.07.2022 01:14 19,8 C 18,9 C 15,0 C 62 % 1016,3 hPa 0,0 l/m 0 min 0 min 0 W/m 6,4 km/h (2 Bft) 95,74 %
29.07.2022 01:16 19,8 C 18,9 C 15,0 C 62 % 1016,3 hPa 0,0 l/m 0 min 0 min 0 W/m 3,2 km/h (1 Bft) 95,65 %
29.07.2022 01:18 19,8 C 18,9 C 15,0 C 62 % 1016,3 hPa 0,0 l/m 0 min 0 min 0 W/m 6,4 km/h (2 Bft) 93,62 %
29.07.2022 01:20 19,8 C 18,9 C 15,0 C 62 % 1016,2 hPa 0,0 l/m 0 min 0 min 0 W/m 6,4 km/h (2 Bft) 93,62 %
29.07.2022 01:22 19,7 C 18,3 C 15,0 C 62 % 1016,2 hPa 0,0 l/m 0 min 0 min 0 W/m 6,4 km/h (2 Bft) 95,74 %
29.07.2022 01:24 19,7 C 18,3 C 15,0 C 62 % 1016,2 hPa 0,0 l/m 0 min 0 min 0 W/m 6,4 km/h (2 Bft) 93,62 %
29.07.2022 01:26 19,7 C 18,3 C 15,0 C 62 % 1016,1 hPa 0,0 l/m 0 min 0 min 0 W/m 6,4 km/h (2 Bft) 95,65 %
29.07.2022 01:28 19,6 C 18,3 C 15,0 C 62 % 1016,2 hPa 0,0 l/m 0 min 0 min 0 W/m 3,2 km/h (1 Bft) 97,87 %
29.07.2022 01:30 19,6 C 18,3 C 15,0 C 63 % 1016,1 hPa 0,0 l/m 0 min 0 min 0 W/m 6,4 km/h (2 Bft) 95,74 %
29.07.2022 01:32 19,6 C 18,3 C 15,0 C 62 % 1016,1 hPa 0,0 l/m 0 min 0 min 0 W/m 9,7 km/h (2 Bft) 97,87 %
29.07.2022 01:34 19,6 C 18,3 C 15,0 C 63 % 1016,2 hPa 0,0 l/m 0 min 0 min 0 W/m 9,7 km/h (2 Bft) 97,87 %
29.07.2022 01:36 19,5 C 18,3 C 15,0 C 63 % 1016,2 hPa 0,0 l/m 0 min 0 min 0 W/m 3,2 km/h (1 Bft) 97,87 %
29.07.2022 01:38 19,5 C 18,3 C 15,0 C 63 % 1016,1 hPa 0,0 l/m 0 min 0 min 0 W/m 6,4 km/h (2 Bft) 97,83 %
29.07.2022 01:40 19,4 C 18,3 C 15,0 C 63 % 1016,2 hPa 0,0 l/m 0 min 0 min 0 W/m 9,7 km/h (2 Bft) 97,87 %
29.07.2022 01:42 19,4 C 18,3 C 15,0 C 63 % 1016,2 hPa 0,0 l/m 0 min 0 min 0 W/m 6,4 km/h (2 Bft) 100,00 %
29.07.2022 01:44 19,4 C 18,3 C 15,0 C 63 % 1016,2 hPa 0,0 l/m 0 min 0 min 0 W/m 3,2 km/h (1 Bft) 100,00 %
29.07.2022 01:46 19,4 C 18,3 C 15,0 C 63 % 1016,2 hPa 0,0 l/m 0 min 0 min 0 W/m 6,4 km/h (2 Bft) 100,00 %
29.07.2022 01:48 19,4 C 18,3 C 15,0 C 63 % 1016,2 hPa 0,0 l/m 0 min 0 min 0 W/m 3,2 km/h (1 Bft) 97,87 %
29.07.2022 01:50 19,4 C 18,3 C 15,0 C 63 % 1016,2 hPa 0,0 l/m 0 min 0 min 0 W/m 6,4 km/h (2 Bft) 100,00 %
29.07.2022 01:52 19,3 C 18,3 C 15,0 C 63 % 1016,2 hPa 0,0 l/m 0 min 0 min 0 W/m 3,2 km/h (1 Bft) 100,00 %
29.07.2022 01:54 19,3 C 18,3 C 15,0 C 63 % 1016,2 hPa 0,0 l/m 0 min 0 min 0 W/m 6,4 km/h (2 Bft) 100,00 %
29.07.2022 01:56 19,3 C 18,3 C 15,0 C 63 % 1016,2 hPa 0,0 l/m 0 min 0 min 0 W/m 9,7 km/h (2 Bft) 100,00 %
29.07.2022 01:58 19,3 C 18,3 C 15,0 C 63 % 1016,2 hPa 0,0 l/m 0 min 0 min 0 W/m 6,4 km/h (2 Bft) 100,00 %
29.07.2022 02:00 19,3 C 18,3 C 15,0 C 64 % 1016,1 hPa 0,0 l/m 0 min 0 min 0 W/m 6,4 km/h (2 Bft) 100,00 %
29.07.2022 02:02 19,3 C 18,3 C 15,0 C 63 % 1016,1 hPa 0,0 l/m 0 min 0 min 0 W/m 9,7 km/h (2 Bft) 100,00 %
29.07.2022 02:04 19,3 C 18,3 C 15,0 C 63 % 1016,0 hPa 0,0 l/m 0 min 0 min 0 W/m 6,4 km/h (2 Bft) 100,00 %
29.07.2022 02:06 19,3 C 18,3 C 15,0 C 63 % 1016,0 hPa 0,0 l/m 0 min 0 min 0 W/m 3,2 km/h (1 Bft) 100,00 %
29.07.2022 02:08 19,3 C 18,3 C 14,4 C 64 % 1016,0 hPa 0,0 l/m 0 min 0 min 0 W/m 6,4 km/h (2 Bft) 100,00 %
29.07.2022 02:10 19,2 C 18,3 C 14,4 C 64 % 1016,0 hPa 0,0 l/m 0 min 0 min 0 W/m 6,4 km/h (2 Bft) 95,74 %
29.07.2022 02:12 19,2 C 18,3 C 14,4 C 64 % 1016,0 hPa 0,0 l/m 0 min 0 min 0 W/m 6,4 km/h (2 Bft) 95,74 %
29.07.2022 02:14 19,2 C 18,3 C 14,4 C 64 % 1015,9 hPa 0,0 l/m 0 min 0 min 0 W/m 6,4 km/h (2 Bft) 97,83 %
29.07.2022 02:16 19,2 C 18,3 C 14,4 C 64 % 1015,9 hPa 0,0 l/m 0 min 0 min 0 W/m 6,4 km/h (2 Bft) 95,74 %
29.07.2022 02:18 19,1 C 18,3 C 14,4 C 64 % 1015,8 hPa 0,0 l/m 0 min 0 min 0 W/m 6,4 km/h (2 Bft) 97,87 %
29.07.2022 02:20 19,1 C 17,8 C 14,4 C 64 % 1015,8 hPa 0,0 l/m 0 min 0 min 0 W/m 6,4 km/h (2 Bft) 97,87 %
29.07.2022 02:22 19,1 C 17,8 C 14,4 C 64 % 1015,7 hPa 0,0 l/m 0 min 0 min 0 W/m 6,4 km/h (2 Bft) 97,87 %
29.07.2022 02:24 19,1 C 17,8 C 14,4 C 64 % 1015,6 hPa 0,0 l/m 0 min 0 min 0 W/m 6,4 km/h (2 Bft) 97,87 %
29.07.2022 02:26 19,1 C 17,8 C 14,4 C 64 % 1015,6 hPa 0,0 l/m 0 min 0 min 0 W/m 6,4 km/h (2 Bft) 97,83 %
29.07.2022 02:28 19,0 C 17,8 C 14,4 C 65 % 1015,6 hPa 0,0 l/m 0 min 0 min 0 W/m 6,4 km/h (2 Bft) 97,87 %
29.07.2022 02:30 18,9 C 17,8 C 14,4 C 65 % 1015,5 hPa 0,0 l/m 0 min 0 min 0 W/m 6,4 km/h (2 Bft) 97,87 %
29.07.2022 02:32 18,9 C 17,8 C 14,4 C 65 % 1015,5 hPa 0,0 l/m 0 min 0 min 0 W/m 6,4 km/h (2 Bft) 97,87 %
29.07.2022 02:34 18,9 C 17,8 C 14,4 C 65 % 1015,4 hPa 0,0 l/m 0 min 0 min 0 W/m 9,7 km/h (2 Bft) 97,87 %
29.07.2022 02:36 18,9 C 17,8 C 14,4 C 65 % 1015,4 hPa 0,0 l/m 0 min 0 min 0 W/m 9,7 km/h (2 Bft) 97,87 %
29.07.2022 02:38 18,8 C 17,8 C 14,4 C 65 % 1015,4 hPa 0,0 l/m 0 min 0 min 0 W/m 6,4 km/h (2 Bft) 97,83 %
29.07.2022 02:40 18,9 C 17,8 C 14,4 C 65 % 1015,4 hPa 0,0 l/m 0 min 0 min 0 W/m 6,4 km/h (2 Bft) 97,87 %
29.07.2022 02:42 18,8 C 17,8 C 14,4 C 65 % 1015,4 hPa 0,0 l/m 0 min 0 min 0 W/m 6,4 km/h (2 Bft) 97,87 %
29.07.2022 02:44 18,8 C 17,8 C 14,4 C 65 % 1015,4 hPa 0,0 l/m 0 min 0 min 0 W/m 6,4 km/h (2 Bft) 95,74 %
29.07.2022 02:46 18,8 C 17,8 C 14,4 C 65 % 1015,4 hPa 0,0 l/m 0 min 0 min 0 W/m 3,2 km/h (1 Bft) 97,87 %
29.07.2022 02:48 18,8 C 17,8 C 14,4 C 65 % 1015,4 hPa 0,0 l/m 0 min 0 min 0 W/m 3,2 km/h (1 Bft) 100,00 %
29.07.2022 02:50 18,8 C 17,8 C 14,4 C 66 % 1015,4 hPa 0,0 l/m 0 min 0 min 0 W/m 6,4 km/h (2 Bft) 100,00 %
29.07.2022 02:52 18,8 C 17,8 C 14,4 C 65 % 1015,4 hPa 0,0 l/m 0 min 0 min 0 W/m 3,2 km/h (1 Bft) 100,00 %
29.07.2022 02:54 18,8 C 17,8 C 14,4 C 66 % 1015,4 hPa 0,0 l/m 0 min 0 min 0 W/m 6,4 km/h (2 Bft) 100,00 %
29.07.2022 02:56 18,8 C 17,8 C 14,4 C 65 % 1015,3 hPa 0,0 l/m 0 min 0 min 0 W/m 3,2 km/h (1 Bft) 100,00 %
29.07.2022 02:58 18,8 C 17,8 C 14,4 C 65 % 1015,3 hPa 0,0 l/m 0 min 0 min 0 W/m 6,4 km/h (2 Bft) 100,00 %
29.07.2022 03:00 18,8 C 17,8 C 14,4 C 65 % 1015,3 hPa 0,0 l/m 0 min 0 min 0 W/m 6,4 km/h (2 Bft) 100,00 %
29.07.2022 03:02 18,8 C 17,8 C 14,4 C 65 % 1015,3 hPa 0,0 l/m 0 min 0 min 0 W/m 12,9 km/h (3 Bft) 100,00 %
29.07.2022 03:04 18,8 C 17,8 C 14,4 C 65 % 1015,3 hPa 0,0 l/m 0 min 0 min 0 W/m 9,7 km/h (2 Bft) 100,00 %
29.07.2022 03:06 18,8 C 17,8 C 14,4 C 64 % 1015,3 hPa 0,0 l/m 0 min 0 min 0 W/m 12,9 km/h (3 Bft) 100,00 %
29.07.2022 03:08 18,8 C 17,8 C 14,4 C 65 % 1015,3 hPa 0,0 l/m 0 min 0 min 0 W/m 12,9 km/h (3 Bft) 100,00 %
29.07.2022 03:10 18,8 C 17,8 C 14,4 C 64 % 1015,2 hPa 0,0 l/m 0 min 0 min 0 W/m 3,2 km/h (1 Bft) 97,87 %
29.07.2022 03:12 18,8 C 17,8 C 14,4 C 65 % 1015,3 hPa 0,0 l/m 0 min 0 min 0 W/m 6,4 km/h (2 Bft) 97,87 %
29.07.2022 03:14 18,8 C 17,8 C 14,4 C 65 % 1015,3 hPa 0,0 l/m 0 min 0 min 0 W/m 6,4 km/h (2 Bft) 100,00 %
29.07.2022 03:16 18,8 C 17,8 C 14,4 C 65 % 1015,3 hPa 0,0 l/m 0 min 0 min 0 W/m 6,4 km/h (2 Bft) 100,00 %
29.07.2022 03:18 18,8 C 17,8 C 14,4 C 65 % 1015,3 hPa 0,0 l/m 0 min 0 min 0 W/m 3,2 km/h (1 Bft) 97,87 %
29.07.2022 03:20 18,8 C 17,8 C 14,4 C 65 % 1015,3 hPa 0,0 l/m 0 min 0 min 0 W/m 6,4 km/h (2 Bft) 97,87 %
29.07.2022 03:22 18,8 C 17,8 C 14,4 C 65 % 1015,2 hPa 0,0 l/m 0 min 0 min 0 W/m 6,4 km/h (2 Bft) 100,00 %
29.07.2022 03:24 18,8 C 17,8 C 14,4 C 65 % 1015,2 hPa 0,0 l/m 0 min 0 min 0 W/m 9,7 km/h (2 Bft) 100,00 %
29.07.2022 03:26 18,8 C 17,8 C 14,4 C 65 % 1015,2 hPa 0,0 l/m 0 min 0 min 0 W/m 3,2 km/h (1 Bft) 100,00 %
29.07.2022 03:28 18,8 C 17,8 C 14,4 C 65 % 1015,1 hPa 0,0 l/m 0 min 0 min 0 W/m 9,7 km/h (2 Bft) 100,00 %
29.07.2022 03:30 18,8 C 17,8 C 14,4 C 65 % 1015,2 hPa 0,0 l/m 0 min 0 min 0 W/m 6,4 km/h (2 Bft) 93,62 %
29.07.2022 03:32 18,8 C 17,8 C 14,4 C 65 % 1015,2 hPa 0,0 l/m 0 min 0 min 0 W/m 6,4 km/h (2 Bft) 97,87 %
29.07.2022 03:34 18,8 C 17,8 C 14,4 C 65 % 1015,3 hPa 0,0 l/m 0 min 0 min 0 W/m 3,2 km/h (1 Bft) 97,87 %
29.07.2022 03:36 18,8 C 17,8 C 14,4 C 65 % 1015,3 hPa 0,0 l/m 0 min 0 min 0 W/m 6,4 km/h (2 Bft) 97,87 %
29.07.2022 03:38 18,8 C 17,8 C 14,4 C 65 % 1015,3 hPa 0,0 l/m 0 min 0 min 0 W/m 3,2 km/h (1 Bft) 97,83 %
29.07.2022 03:40 18,8 C 17,8 C 14,4 C 65 % 1015,3 hPa 0,0 l/m 0 min 0 min 0 W/m 3,2 km/h (1 Bft) 97,87 %
29.07.2022 03:42 18,8 C 17,8 C 14,4 C 65 % 1015,3 hPa 0,0 l/m 0 min 0 min 0 W/m 3,2 km/h (1 Bft) 97,87 %
29.07.2022 03:44 18,8 C 17,8 C 14,4 C 66 % 1015,3 hPa 0,0 l/m 0 min 0 min 0 W/m 3,2 km/h (1 Bft) 95,74 %
29.07.2022 03:46 18,8 C 17,8 C 14,4 C 65 % 1015,2 hPa 0,0 l/m 0 min 0 min 0 W/m 0,0 km/h (0 Bft) 95,74 %
29.07.2022 03:48 18,8 C 17,8 C 14,4 C 66 % 1015,3 hPa 0,0 l/m 0 min 0 min 0 W/m 0,0 km/h (0 Bft) 93,62 %
29.07.2022 03:50 18,8 C 17,8 C 14,4 C 66 % 1015,2 hPa 0,0 l/m 0 min 0 min 0 W/m 6,4 km/h (2 Bft) 95,65 %
29.07.2022 03:52 18,8 C 17,8 C 14,4 C 65 % 1015,2 hPa 0,0 l/m 0 min 0 min 0 W/m 3,2 km/h (1 Bft) 95,74 %
29.07.2022 03:54 18,8 C 17,8 C 14,4 C 65 % 1015,3 hPa 0,0 l/m 0 min 0 min 0 W/m 3,2 km/h (1 Bft) 97,87 %
29.07.2022 03:56 18,8 C 17,8 C 14,4 C 65 % 1015,3 hPa 0,0 l/m 0 min 0 min 0 W/m 3,2 km/h (1 Bft) 95,74 %
29.07.2022 03:58 18,8 C 17,8 C 14,4 C 65 % 1015,4 hPa 0,0 l/m 0 min 0 min 0 W/m 3,2 km/h (1 Bft) 93,62 %
29.07.2022 04:00 18,8 C 17,8 C 14,4 C 65 % 1015,6 hPa 0,0 l/m 0 min 0 min 0 W/m 6,4 km/h (2 Bft) 95,74 %
29.07.2022 04:05 18,8 C 17,8 C 14,4 C 66 % 1015,7 hPa 0,0 l/m 0 min 0 min 0 W/m 16,1 km/h (3 Bft) 97,01 %
29.07.2022 04:06 18,8 C 17,8 C 14,4 C 66 % 1015,8 hPa 0,0 l/m 0 min 0 min 0 W/m 16,1 km/h (3 Bft) 91,30 %
29.07.2022 04:08 18,8 C 17,8 C 14,4 C 66 % 1015,8 hPa 0,0 l/m 0 min 0 min 0 W/m 19,3 km/h (3 Bft) 95,74 %
29.07.2022 04:10 18,7 C 17,8 C 14,4 C 66 % 1015,6 hPa 0,0 l/m 0 min 0 min 0 W/m 16,1 km/h (3 Bft) 93,62 %
29.07.2022 04:12 18,7 C 17,8 C 14,4 C 66 % 1015,6 hPa 0,0 l/m 0 min 0 min 0 W/m 19,3 km/h (3 Bft) 93,62 %
29.07.2022 04:14 18,6 C 17,2 C 13,9 C 66 % 1015,7 hPa 0,0 l/m 0 min 0 min 0 W/m 16,1 km/h (3 Bft) 93,48 %
29.07.2022 04:16 18,6 C 17,2 C 13,9 C 66 % 1015,7 hPa 0,0 l/m 0 min 0 min 0 W/m 16,1 km/h (3 Bft) 93,62 %
29.07.2022 04:18 18,6 C 17,2 C 13,9 C 66 % 1015,8 hPa 0,0 l/m 0 min 0 min 0 W/m 16,1 km/h (3 Bft) 95,74 %
29.07.2022 04:20 18,5 C 17,2 C 13,9 C 66 % 1015,8 hPa 0,0 l/m 0 min 0 min 0 W/m 12,9 km/h (3 Bft) 91,49 %
29.07.2022 04:22 18,5 C 17,2 C 13,9 C 66 % 1015,8 hPa 0,0 l/m 0 min 0 min 0 W/m 12,9 km/h (3 Bft) 93,62 %
29.07.2022 04:24 18,4 C 17,2 C 13,9 C 66 % 1015,6 hPa 0,0 l/m 0 min 0 min 0 W/m 12,9 km/h (3 Bft) 91,30 %
29.07.2022 04:26 18,4 C 17,2 C 13,9 C 66 % 1015,6 hPa 0,0 l/m 0 min 0 min 0 W/m 9,7 km/h (2 Bft) 91,49 %
29.07.2022 04:28 18,3 C 17,2 C 13,9 C 66 % 1015,6 hPa 0,0 l/m 0 min 0 min 0 W/m 16,1 km/h (3 Bft) 93,62 %
29.07.2022 04:30 18,3 C 17,2 C 13,9 C 66 % 1015,6 hPa 0,0 l/m 0 min 0 min 0 W/m 19,3 km/h (3 Bft) 93,62 %
29.07.2022 04:32 18,2 C 17,2 C 13,9 C 66 % 1015,6 hPa 0,0 l/m 0 min 0 min 0 W/m 25,7 km/h (4 Bft) 97,87 %
29.07.2022 04:34 18,2 C 17,2 C 13,9 C 66 % 1015,6 hPa 0,0 l/m 0 min 0 min 0 W/m 9,7 km/h (2 Bft) 95,74 %
29.07.2022 04:36 18,2 C 17,2 C 13,9 C 67 % 1015,7 hPa 0,0 l/m 0 min 0 min 0 W/m 12,9 km/h (3 Bft) 97,83 %
29.07.2022 04:38 18,1 C 17,2 C 13,9 C 67 % 1015,6 hPa 0,0 l/m 0 min 0 min 0 W/m 9,7 km/h (2 Bft) 97,87 %
29.07.2022 04:40 18,1 C 17,2 C 13,9 C 67 % 1015,6 hPa 0,0 l/m 0 min 0 min 0 W/m 16,1 km/h (3 Bft) 100,00 %
29.07.2022 04:42 18,1 C 17,2 C 13,3 C 67 % 1015,5 hPa 0,0 l/m 0 min 0 min 0 W/m 16,1 km/h (3 Bft) 100,00 %
29.07.2022 04:44 18,1 C 17,2 C 13,3 C 68 % 1015,4 hPa 0,0 l/m 0 min 0 min 0 W/m 16,1 km/h (3 Bft) 97,87 %
29.07.2022 04:46 18,0 C 17,2 C 13,3 C 68 % 1015,4 hPa 0,0 l/m 0 min 0 min 0 W/m 19,3 km/h (3 Bft) 100,00 %
29.07.2022 04:48 17,9 C 16,7 C 13,3 C 68 % 1015,4 hPa 0,0 l/m 0 min 0 min 0 W/m 16,1 km/h (3 Bft) 100,00 %
29.07.2022 04:50 17,9 C 16,7 C 13,3 C 68 % 1015,5 hPa 0,0 l/m 0 min 0 min 0 W/m 9,7 km/h (2 Bft) 100,00 %
29.07.2022 04:52 17,9 C 16,7 C 13,3 C 68 % 1015,5 hPa 0,0 l/m 0 min 0 min 0 W/m 19,3 km/h (3 Bft) 100,00 %
29.07.2022 04:54 17,8 C 16,7 C 13,3 C 69 % 1015,6 hPa 0,0 l/m 0 min 0 min 0 W/m 19,3 km/h (3 Bft) 100,00 %
29.07.2022 04:56 17,8 C 16,7 C 13,3 C 69 % 1015,6 hPa 0,0 l/m 0 min 0 min 0 W/m 16,1 km/h (3 Bft) 100,00 %
29.07.2022 04:58 17,8 C 16,7 C 13,3 C 69 % 1015,5 hPa 0,0 l/m 0 min 0 min 0 W/m 12,9 km/h (3 Bft) 100,00 %
29.07.2022 05:00 17,7 C 16,7 C 13,3 C 69 % 1015,6 hPa 0,0 l/m 0 min 0 min 0 W/m 19,3 km/h (3 Bft) 100,00 %
29.07.2022 05:02 17,7 C 16,7 C 13,3 C 69 % 1015,5 hPa 0,0 l/m 0 min 0 min 0 W/m 6,4 km/h (2 Bft) 100,00 %
29.07.2022 05:04 17,7 C 16,7 C 13,3 C 70 % 1015,5 hPa 0,0 l/m 0 min 0 min 0 W/m 12,9 km/h (3 Bft) 100,00 %
29.07.2022 05:06 17,7 C 16,7 C 13,3 C 70 % 1015,6 hPa 0,0 l/m 0 min 0 min 0 W/m 12,9 km/h (3 Bft) 97,87 %
29.07.2022 05:08 17,7 C 16,7 C 13,3 C 70 % 1015,7 hPa 0,0 l/m 0 min 0 min 0 W/m 6,4 km/h (2 Bft) 100,00 %
29.07.2022 05:10 17,7 C 16,7 C 13,3 C 70 % 1015,8 hPa 0,0 l/m 0 min 0 min 0 W/m 16,1 km/h (3 Bft) 100,00 %
29.07.2022 05:12 17,7 C 16,7 C 13,3 C 70 % 1015,8 hPa 0,0 l/m 0 min 0 min 0 W/m 19,3 km/h (3 Bft) 100,00 %
29.07.2022 05:14 17,7 C 16,7 C 13,3 C 70 % 1015,9 hPa 0,0 l/m 0 min 0 min 0 W/m 12,9 km/h (3 Bft) 100,00 %
29.07.2022 05:16 17,7 C 16,7 C 13,3 C 70 % 1016,1 hPa 0,0 l/m 0 min 0 min 0 W/m 16,1 km/h (3 Bft) 100,00 %
29.07.2022 05:18 17,7 C 16,7 C 13,3 C 70 % 1016,2 hPa 0,0 l/m 0 min 0 min 0 W/m 9,7 km/h (2 Bft) 100,00 %
29.07.2022 05:20 17,7 C 16,7 C 13,3 C 71 % 1016,3 hPa 0,0 l/m 0 min 2 min 0 W/m 6,4 km/h (2 Bft) 100,00 %
29.07.2022 05:22 17,7 C 16,1 C 12,8 C 73 % 1016,3 hPa 0,0 l/m 0 min 2 min 0 W/m 6,4 km/h (2 Bft) 97,87 %
29.07.2022 05:24 17,7 C 16,1 C 12,8 C 74 % 1016,4 hPa 0,0 l/m 0 min 2 min 0 W/m 3,2 km/h (1 Bft) 100,00 %
29.07.2022 05:26 17,7 C 16,1 C 12,2 C 75 % 1016,4 hPa 0,0 l/m 0 min 2 min 0 W/m 3,2 km/h (1 Bft) 100,00 %
29.07.2022 05:28 17,7 C 15,6 C 11,1 C 75 % 1016,4 hPa 0,2 l/m 0 min 2 min 0 W/m 6,4 km/h (2 Bft) 100,00 %
29.07.2022 05:30 17,7 C 15,6 C 11,1 C 76 % 1016,4 hPa 0,0 l/m 0 min 2 min 0 W/m 6,4 km/h (2 Bft) 95,74 %
29.07.2022 05:32 17,6 C 15,0 C 10,6 C 76 % 1016,4 hPa 0,2 l/m 0 min 2 min 0 W/m 6,4 km/h (2 Bft) 100,00 %
29.07.2022 05:34 17,6 C 14,4 C 10,6 C 77 % 1016,4 hPa 0,2 l/m 0 min 2 min 0 W/m 3,2 km/h (1 Bft) 100,00 %
29.07.2022 05:36 17,5 C 14,4 C 10,6 C 79 % 1016,4 hPa 0,2 l/m 0 min 2 min 0 W/m 3,2 km/h (1 Bft) 100,00 %
29.07.2022 05:38 17,3 C 13,9 C 10,6 C 79 % 1016,3 hPa 0,0 l/m 0 min 2 min 0 W/m 6,4 km/h (2 Bft) 100,00 %
29.07.2022 05:40 17,2 C 13,9 C 10,6 C 80 % 1016,3 hPa 0,0 l/m 0 min 2 min 0 W/m 9,7 km/h (2 Bft) 100,00 %
29.07.2022 05:42 17,1 C 13,9 C 10,6 C 80 % 1016,3 hPa 0,2 l/m 0 min 2 min 0 W/m 3,2 km/h (1 Bft) 100,00 %
29.07.2022 05:44 16,9 C 13,9 C 10,0 C 81 % 1016,2 hPa 0,2 l/m 0 min 2 min 0 W/m 3,2 km/h (1 Bft) 100,00 %
29.07.2022 05:46 16,8 C 13,9 C 10,6 C 82 % 1016,1 hPa 0,0 l/m 0 min 2 min 0 W/m 6,4 km/h (2 Bft) 100,00 %
29.07.2022 05:48 16,6 C 13,3 C 10,0 C 82 % 1016,1 hPa 0,0 l/m 0 min 2 min 0 W/m 12,9 km/h (3 Bft) 100,00 %
29.07.2022 05:50 16,5 C 13,3 C 10,0 C 82 % 1015,9 hPa 0,4 l/m 0 min 2 min 0 W/m 3,2 km/h (1 Bft) 100,00 %
29.07.2022 05:52 16,3 C 13,3 C 10,0 C 83 % 1015,7 hPa 0,2 l/m 0 min 2 min 0 W/m 6,4 km/h (2 Bft) 100,00 %
29.07.2022 05:54 16,2 C 13,3 C 10,0 C 84 % 1015,6 hPa 0,0 l/m 0 min 2 min 0 W/m 6,4 km/h (2 Bft) 100,00 %
29.07.2022 05:56 16,0 C 13,3 C 10,0 C 85 % 1015,5 hPa 0,2 l/m 0 min 2 min 0 W/m 16,1 km/h (3 Bft) 97,87 %
29.07.2022 05:58 15,8 C 13,3 C 10,0 C 85 % 1015,5 hPa 0,0 l/m 0 min 2 min 0 W/m 9,7 km/h (2 Bft) 97,87 %
29.07.2022 06:00 15,7 C 13,3 C 9,4 C 86 % 1015,5 hPa 0,0 l/m 0 min 2 min 0 W/m 9,7 km/h (2 Bft) 97,83 %
29.07.2022 06:02 15,7 C 13,3 C 9,4 C 86 % 1015,4 hPa 0,0 l/m 0 min 2 min 0 W/m 12,9 km/h (3 Bft) 97,87 %
29.07.2022 06:04 15,6 C 13,3 C 10,0 C 87 % 1015,4 hPa 0,0 l/m 0 min 2 min 0 W/m 12,9 km/h (3 Bft) 93,62 %
29.07.2022 06:08 15,4 C 13,3 C 10,0 C 87 % 1015,3 hPa 0,0 l/m 0 min 4 min 0 W/m 12,9 km/h (3 Bft) 97,87 %
29.07.2022 06:10 15,4 C 13,3 C 10,0 C 87 % 1015,2 hPa 0,0 l/m 0 min 0 min 0 W/m 6,4 km/h (2 Bft) 97,87 %
29.07.2022 06:12 15,4 C 13,3 C 10,0 C 88 % 1015,1 hPa 0,0 l/m 0 min 2 min 0 W/m 6,4 km/h (2 Bft) 97,83 %
29.07.2022 06:14 15,3 C 13,9 C 10,0 C 88 % 1015,2 hPa 0,0 l/m 0 min 0 min 0 W/m 9,7 km/h (2 Bft) 95,74 %
29.07.2022 06:16 15,3 C 13,9 C 10,0 C 88 % 1015,3 hPa 0,0 l/m 0 min 0 min 0 W/m 6,4 km/h (2 Bft) 91,49 %
29.07.2022 06:18 15,3 C 13,9 C 10,0 C 88 % 1015,3 hPa 0,0 l/m 0 min 0 min 0 W/m 6,4 km/h (2 Bft) 95,74 %
29.07.2022 06:20 15,3 C 13,9 C 10,0 C 88 % 1015,4 hPa 0,0 l/m 0 min 0 min 4 W/m 9,7 km/h (2 Bft) 95,74 %
29.07.2022 06:22 15,3 C 13,9 C 10,0 C 89 % 1015,4 hPa 0,2 l/m 0 min 0 min 5 W/m 9,7 km/h (2 Bft) 93,62 %
29.07.2022 06:24 15,4 C 14,4 C 10,0 C 89 % 1015,4 hPa 0,0 l/m 0 min 0 min 5 W/m 6,4 km/h (2 Bft) 95,65 %
29.07.2022 06:26 15,4 C 13,9 C 10,0 C 89 % 1015,4 hPa 0,0 l/m 0 min 0 min 5 W/m 9,7 km/h (2 Bft) 95,74 %
29.07.2022 06:28 15,4 C 14,4 C 10,6 C 89 % 1015,4 hPa 0,0 l/m 0 min 0 min 5 W/m 3,2 km/h (1 Bft) 93,62 %
29.07.2022 06:30 15,4 C 14,4 C 10,0 C 89 % 1015,5 hPa 0,0 l/m 0 min 2 min 5 W/m 9,7 km/h (2 Bft) 97,87 %
29.07.2022 06:32 15,4 C 14,4 C 10,0 C 89 % 1015,6 hPa 0,0 l/m 0 min 2 min 5 W/m 3,2 km/h (1 Bft) 97,87 %
29.07.2022 06:34 15,5 C 14,4 C 10,6 C 90 % 1015,7 hPa 0,0 l/m 0 min 2 min 5 W/m 3,2 km/h (1 Bft) 97,87 %
29.07.2022 06:36 15,6 C 14,4 C 10,6 C 90 % 1015,7 hPa 0,0 l/m 0 min 2 min 5 W/m 3,2 km/h (1 Bft) 97,83 %
29.07.2022 06:38 15,6 C 14,4 C 10,6 C 90 % 1015,7 hPa 0,0 l/m 0 min 2 min 5 W/m 6,4 km/h (2 Bft) 97,87 %
29.07.2022 06:40 15,6 C 14,4 C 10,6 C 90 % 1015,7 hPa 0,0 l/m 0 min 2 min 5 W/m 3,2 km/h (1 Bft) 97,87 %
29.07.2022 06:42 15,6 C 14,4 C 10,6 C 90 % 1015,6 hPa 0,0 l/m 0 min 2 min 5 W/m 3,2 km/h (1 Bft) 95,74 %
29.07.2022 06:44 15,6 C 14,4 C 10,6 C 90 % 1015,6 hPa 0,2 l/m 0 min 2 min 6 W/m 6,4 km/h (2 Bft) 95,74 %
29.07.2022 06:46 15,6 C 14,4 C 10,6 C 90 % 1015,5 hPa 0,0 l/m 0 min 2 min 7 W/m 6,4 km/h (2 Bft) 95,74 %
29.07.2022 06:48 15,6 C 14,4 C 10,0 C 90 % 1015,4 hPa 0,0 l/m 0 min 2 min 7 W/m 6,4 km/h (2 Bft) 93,48 %
29.07.2022 06:50 15,5 C 13,9 C 10,0 C 90 % 1015,3 hPa 0,0 l/m 0 min 2 min 7 W/m 9,7 km/h (2 Bft) 95,74 %
29.07.2022 06:52 15,4 C 13,9 C 10,0 C 90 % 1015,3 hPa 0,0 l/m 0 min 2 min 5 W/m 6,4 km/h (2 Bft) 93,62 %
29.07.2022 06:54 15,4 C 14,4 C 10,0 C 90 % 1015,4 hPa 0,0 l/m 0 min 0 min 5 W/m 9,7 km/h (2 Bft) 93,62 %
29.07.2022 06:56 15,4 C 14,4 C 10,0 C 90 % 1015,4 hPa 0,0 l/m 0 min 0 min 5 W/m 3,2 km/h (1 Bft) 97,87 %
29.07.2022 06:58 15,4 C 13,9 C 10,6 C 90 % 1015,5 hPa 0,0 l/m 0 min 0 min 5 W/m 6,4 km/h (2 Bft) 97,87 %
29.07.2022 07:00 15,4 C 13,9 C 10,6 C 90 % 1015,5 hPa 0,0 l/m 0 min 2 min 5 W/m 6,4 km/h (2 Bft) 97,83 %
29.07.2022 07:02 15,4 C 14,4 C 10,6 C 90 % 1015,6 hPa 0,0 l/m 0 min 2 min 5 W/m 3,2 km/h (1 Bft) 97,87 %
29.07.2022 07:04 15,4 C 14,4 C 10,6 C 90 % 1015,6 hPa 0,0 l/m 0 min 2 min 5 W/m 3,2 km/h (1 Bft) 97,87 %
29.07.2022 07:06 15,4 C 14,4 C 10,6 C 91 % 1015,7 hPa 0,0 l/m 0 min 2 min 5 W/m 3,2 km/h (1 Bft) 97,87 %
29.07.2022 07:08 15,4 C 14,4 C 10,6 C 91 % 1015,6 hPa 0,0 l/m 0 min 2 min 5 W/m 3,2 km/h (1 Bft) 95,74 %
29.07.2022 07:10 15,4 C 14,4 C 10,6 C 91 % 1015,6 hPa 0,0 l/m 0 min 2 min 6 W/m 3,2 km/h (1 Bft) 97,87 %
29.07.2022 07:12 15,4 C 14,4 C 10,6 C 91 % 1015,5 hPa 0,0 l/m 0 min 0 min 7 W/m 3,2 km/h (1 Bft) 97,83 %
29.07.2022 07:14 15,4 C 13,9 C 10,6 C 91 % 1015,5 hPa 0,0 l/m 0 min 0 min 9 W/m 6,4 km/h (2 Bft) 97,87 %
29.07.2022 07:16 15,4 C 13,9 C 10,0 C 91 % 1015,4 hPa 0,0 l/m 0 min 0 min 9 W/m 6,4 km/h (2 Bft) 97,87 %
29.07.2022 07:18 15,4 C 13,9 C 10,0 C 91 % 1015,4 hPa 0,0 l/m 0 min 0 min 11 W/m 6,4 km/h (2 Bft) 97,14 %
29.07.2022 07:20 15,3 C 13,9 C 10,0 C 91 % 1015,4 hPa 0,0 l/m 0 min 0 min 12 W/m 6,4 km/h (2 Bft) 98,31 %
29.07.2022 07:22 15,3 C 13,9 C 10,0 C 91 % 1015,4 hPa 0,0 l/m 0 min 0 min 14 W/m 6,4 km/h (2 Bft) 97,87 %
29.07.2022 07:24 15,2 C 13,9 C 10,0 C 91 % 1015,4 hPa 0,0 l/m 0 min 0 min 16 W/m 9,7 km/h (2 Bft) 97,83 %
29.07.2022 07:26 15,2 C 13,9 C 10,0 C 91 % 1015,4 hPa 0,0 l/m 0 min 0 min 18 W/m 3,2 km/h (1 Bft) 93,62 %
29.07.2022 07:28 15,2 C 13,9 C 10,0 C 91 % 1015,4 hPa 0,0 l/m 0 min 0 min 19 W/m 3,2 km/h (1 Bft) 97,87 %
29.07.2022 07:30 15,2 C 13,9 C 10,0 C 91 % 1015,5 hPa 0,0 l/m 0 min 0 min 22 W/m 9,7 km/h (2 Bft) 97,87 %
29.07.2022 07:32 15,1 C 13,9 C 10,0 C 91 % 1015,5 hPa 0,0 l/m 0 min 0 min 25 W/m 6,4 km/h (2 Bft) 97,14 %
29.07.2022 07:34 15,1 C 13,9 C 10,0 C 91 % 1015,5 hPa 0,0 l/m 0 min 0 min 29 W/m 0,0 km/h (0 Bft) 98,15 %
29.07.2022 07:36 15,1 C 14,4 C 10,6 C 92 % 1015,4 hPa 0,0 l/m 0 min 0 min 33 W/m 3,2 km/h (1 Bft) 100,00 %
29.07.2022 07:38 15,1 C 14,4 C 10,6 C 92 % 1015,4 hPa 0,0 l/m 0 min 0 min 37 W/m 3,2 km/h (1 Bft) 100,00 %
29.07.2022 07:40 15,1 C 14,4 C 10,6 C 92 % 1015,5 hPa 0,0 l/m 0 min 0 min 39 W/m 6,4 km/h (2 Bft) 100,00 %
29.07.2022 07:42 15,1 C 14,4 C 10,6 C 92 % 1015,5 hPa 0,0 l/m 0 min 0 min 40 W/m 3,2 km/h (1 Bft) 100,00 %
29.07.2022 07:44 15,1 C 14,4 C 10,6 C 92 % 1015,5 hPa 0,0 l/m 0 min 0 min 44 W/m 6,4 km/h (2 Bft) 97,87 %
29.07.2022 07:46 15,1 C 14,4 C 10,6 C 92 % 1015,5 hPa 0,0 l/m 0 min 0 min 47 W/m 3,2 km/h (1 Bft) 95,74 %
29.07.2022 07:48 15,2 C 14,4 C 10,6 C 92 % 1015,5 hPa 0,0 l/m 0 min 0 min 51 W/m 3,2 km/h (1 Bft) 97,83 %
29.07.2022 07:50 15,2 C 14,4 C 10,6 C 92 % 1015,5 hPa 0,0 l/m 0 min 0 min 55 W/m 9,7 km/h (2 Bft) 97,87 %
29.07.2022 07:52 15,2 C 14,4 C 10,6 C 92 % 1015,5 hPa 0,0 l/m 0 min 0 min 58 W/m 6,4 km/h (2 Bft) 95,74 %
29.07.2022 07:54 15,2 C 14,4 C 10,6 C 92 % 1015,5 hPa 0,0 l/m 0 min 0 min 60 W/m 6,4 km/h (2 Bft) 97,87 %
29.07.2022 07:56 15,2 C 14,4 C 10,6 C 92 % 1015,5 hPa 0,0 l/m 0 min 0 min 59 W/m 6,4 km/h (2 Bft) 97,87 %
29.07.2022 07:58 15,2 C 14,4 C 10,6 C 92 % 1015,6 hPa 0,0 l/m 0 min 0 min 58 W/m 3,2 km/h (1 Bft) 97,87 %
29.07.2022 08:00 15,2 C 14,4 C 10,6 C 92 % 1015,5 hPa 0,0 l/m 0 min 0 min 55 W/m 3,2 km/h (1 Bft) 95,65 %
29.07.2022 08:02 15,2 C 14,4 C 10,6 C 92 % 1015,5 hPa 0,0 l/m 0 min 0 min 54 W/m 3,2 km/h (1 Bft) 97,92 %
29.07.2022 08:04 15,3 C 14,4 C 10,6 C 93 % 1015,6 hPa 0,0 l/m 0 min 0 min 51 W/m 3,2 km/h (1 Bft) 97,87 %
29.07.2022 08:06 15,3 C 15,0 C 10,6 C 93 % 1015,6 hPa 0,0 l/m 0 min 0 min 46 W/m 6,4 km/h (2 Bft) 98,31 %
29.07.2022 08:08 15,3 C 15,0 C 10,6 C 93 % 1015,6 hPa 0,0 l/m 0 min 0 min 41 W/m 3,2 km/h (1 Bft) 97,14 %
29.07.2022 08:10 15,4 C 15,0 C 10,6 C 93 % 1015,7 hPa 0,0 l/m 0 min 0 min 36 W/m 3,2 km/h (1 Bft) 97,87 %
29.07.2022 08:12 15,4 C 15,0 C 10,6 C 93 % 1015,7 hPa 0,0 l/m 0 min 0 min 32 W/m 3,2 km/h (1 Bft) 97,83 %
29.07.2022 08:14 15,4 C 15,0 C 11,1 C 93 % 1015,8 hPa 0,0 l/m 0 min 0 min 28 W/m 3,2 km/h (1 Bft) 97,87 %
29.07.2022 08:16 15,4 C 15,0 C 11,1 C 93 % 1015,8 hPa 0,0 l/m 0 min 0 min 26 W/m 3,2 km/h (1 Bft) 100,00 %
29.07.2022 08:18 15,4 C 15,0 C 11,1 C 93 % 1015,8 hPa 0,0 l/m 0 min 0 min 25 W/m 3,2 km/h (1 Bft) 100,00 %
29.07.2022 08:20 15,4 C 15,0 C 11,1 C 93 % 1015,9 hPa 0,0 l/m 0 min 0 min 23 W/m 3,2 km/h (1 Bft) 100,00 %
29.07.2022 08:22 15,4 C 15,0 C 11,1 C 93 % 1016,0 hPa 0,0 l/m 0 min 0 min 23 W/m 3,2 km/h (1 Bft) 100,00 %
29.07.2022 08:24 15,5 C 15,0 C 11,1 C 93 % 1016,1 hPa 0,0 l/m 0 min 0 min 24 W/m 3,2 km/h (1 Bft) 100,00 %
29.07.2022 08:26 15,5 C 15,0 C 11,1 C 93 % 1016,1 hPa 0,0 l/m 0 min 0 min 25 W/m 0,0 km/h (0 Bft) 100,00 %
29.07.2022 08:28 15,6 C 15,0 C 11,1 C 93 % 1016,2 hPa 0,0 l/m 0 min 2 min 24 W/m 0,0 km/h (0 Bft) 100,00 %
29.07.2022 08:30 15,6 C 15,0 C 11,1 C 93 % 1016,3 hPa 0,0 l/m 0 min 0 min 23 W/m 3,2 km/h (1 Bft) 100,00 %
29.07.2022 08:32 15,6 C 15,0 C 11,1 C 93 % 1016,4 hPa 0,0 l/m 0 min 0 min 23 W/m 9,7 km/h (2 Bft) 95,74 %
29.07.2022 08:34 15,6 C 15,0 C 11,1 C 93 % 1016,5 hPa 0,0 l/m 0 min 0 min 23 W/m 9,7 km/h (2 Bft) 97,87 %
29.07.2022 08:36 15,6 C 15,0 C 11,1 C 93 % 1016,6 hPa 0,0 l/m 0 min 0 min 24 W/m 6,4 km/h (2 Bft) 98,28 %
29.07.2022 08:38 15,6 C 15,0 C 11,1 C 93 % 1016,6 hPa 0,0 l/m 0 min 0 min 26 W/m 9,7 km/h (2 Bft) 100,00 %
29.07.2022 08:40 15,6 C 15,0 C 11,1 C 93 % 1016,6 hPa 0,0 l/m 0 min 0 min 28 W/m 9,7 km/h (2 Bft) 97,87 %
29.07.2022 08:42 15,6 C 15,0 C 11,1 C 93 % 1016,6 hPa 0,0 l/m 0 min 0 min 28 W/m 3,2 km/h (1 Bft) 97,87 %
29.07.2022 08:44 15,7 C 15,0 C 11,1 C 93 % 1016,6 hPa 0,0 l/m 0 min 0 min 30 W/m 3,2 km/h (1 Bft) 97,87 %
29.07.2022 08:46 15,7 C 15,0 C 11,1 C 93 % 1016,6 hPa 0,0 l/m 0 min 0 min 33 W/m 3,2 km/h (1 Bft) 97,87 %
29.07.2022 08:48 15,7 C 15,0 C 11,1 C 93 % 1016,6 hPa 0,0 l/m 0 min 0 min 33 W/m 3,2 km/h (1 Bft) 97,83 %
29.07.2022 08:50 15,7 C 15,0 C 11,1 C 93 % 1016,6 hPa 0,0 l/m 0 min 2 min 29 W/m 3,2 km/h (1 Bft) 97,87 %
29.07.2022 08:52 15,7 C 15,0 C 11,1 C 93 % 1016,6 hPa 0,0 l/m 0 min 2 min 26 W/m 3,2 km/h (1 Bft) 97,87 %
29.07.2022 08:54 15,7 C 15,0 C 11,1 C 93 % 1016,6 hPa 0,0 l/m 0 min 0 min 25 W/m 3,2 km/h (1 Bft) 97,87 %
29.07.2022 08:56 15,7 C 15,0 C 11,1 C 93 % 1016,6 hPa 0,0 l/m 0 min 0 min 23 W/m 0,0 km/h (0 Bft) 97,87 %
29.07.2022 08:58 15,8 C 15,0 C 11,1 C 93 % 1016,6 hPa 0,0 l/m 0 min 0 min 23 W/m 0,0 km/h (0 Bft) 95,74 %
29.07.2022 09:00 15,8 C 15,0 C 11,1 C 93 % 1016,6 hPa 0,0 l/m 0 min 0 min 23 W/m 3,2 km/h (1 Bft) 97,83 %
29.07.2022 09:02 15,8 C 15,0 C 11,1 C 93 % 1016,5 hPa 0,0 l/m 0 min 0 min 23 W/m 0,0 km/h (0 Bft) 95,83 %
29.07.2022 09:04 15,8 C 15,0 C 11,1 C 93 % 1016,5 hPa 0,0 l/m 0 min 0 min 23 W/m 0,0 km/h (0 Bft) 95,74 %
29.07.2022 09:06 15,8 C 15,0 C 11,1 C 93 % 1016,5 hPa 0,0 l/m 0 min 2 min 23 W/m 0,0 km/h (0 Bft) 95,74 %
29.07.2022 09:08 15,9 C 15,0 C 11,1 C 93 % 1016,5 hPa 0,0 l/m 0 min 2 min 23 W/m 0,0 km/h (0 Bft) 97,87 %
29.07.2022 09:10 15,9 C 15,0 C 11,1 C 93 % 1016,5 hPa 0,0 l/m 0 min 2 min 25 W/m 0,0 km/h (0 Bft) 97,96 %
29.07.2022 09:12 15,9 C 15,0 C 11,1 C 93 % 1016,5 hPa 0,0 l/m 0 min 2 min 25 W/m 0,0 km/h (0 Bft) 97,87 %
29.07.2022 09:14 15,9 C 15,0 C 11,1 C 93 % 1016,6 hPa 0,0 l/m 0 min 2 min 26 W/m 0,0 km/h (0 Bft) 97,87 %
29.07.2022 09:16 15,9 C 15,0 C 11,1 C 93 % 1016,6 hPa 0,2 l/m 0 min 2 min 27 W/m 0,0 km/h (0 Bft) 97,87 %
29.07.2022 09:18 15,9 C 14,4 C 11,1 C 93 % 1016,5 hPa 0,0 l/m 0 min 2 min 29 W/m 0,0 km/h (0 Bft) 97,87 %
29.07.2022 09:20 15,9 C 15,0 C 11,1 C 93 % 1016,5 hPa 0,0 l/m 0 min 2 min 31 W/m 0,0 km/h (0 Bft) 100,00 %
29.07.2022 09:22 16,0 C 15,0 C 11,1 C 93 % 1016,4 hPa 0,0 l/m 0 min 2 min 34 W/m 0,0 km/h (0 Bft) 97,83 %
29.07.2022 09:24 16,1 C 15,0 C 11,1 C 94 % 1016,4 hPa 0,0 l/m 0 min 2 min 36 W/m 0,0 km/h (0 Bft) 100,00 %
29.07.2022 09:26 16,1 C 15,0 C 11,1 C 94 % 1016,4 hPa 0,0 l/m 0 min 2 min 38 W/m 0,0 km/h (0 Bft) 100,00 %
29.07.2022 09:28 16,1 C 15,0 C 11,7 C 94 % 1016,3 hPa 0,2 l/m 0 min 2 min 40 W/m 0,0 km/h (0 Bft) 100,00 %
29.07.2022 09:30 16,1 C 15,0 C 11,1 C 94 % 1016,3 hPa 0,0 l/m 0 min 2 min 42 W/m 3,2 km/h (1 Bft) 100,00 %
29.07.2022 09:32 16,1 C 14,4 C 11,1 C 94 % 1016,3 hPa 0,0 l/m 0 min 2 min 44 W/m 0,0 km/h (0 Bft) 97,87 %
29.07.2022 09:34 16,1 C 14,4 C 11,1 C 94 % 1016,3 hPa 0,0 l/m 0 min 2 min 46 W/m 3,2 km/h (1 Bft) 97,83 %
29.07.2022 09:36 16,1 C 15,0 C 11,1 C 94 % 1016,3 hPa 0,0 l/m 0 min 2 min 52 W/m 3,2 km/h (1 Bft) 95,74 %
29.07.2022 09:38 16,1 C 15,0 C 11,1 C 94 % 1016,2 hPa 0,0 l/m 0 min 2 min 60 W/m 3,2 km/h (1 Bft) 97,87 %
29.07.2022 09:40 16,1 C 15,0 C 11,1 C 94 % 1016,2 hPa 0,0 l/m 0 min 2 min 67 W/m 3,2 km/h (1 Bft) 97,87 %
29.07.2022 09:42 16,0 C 15,0 C 11,1 C 94 % 1016,2 hPa 0,0 l/m 0 min 2 min 74 W/m 3,2 km/h (1 Bft) 97,87 %
29.07.2022 09:44 16,0 C 15,0 C 11,1 C 94 % 1016,1 hPa 0,0 l/m 0 min 2 min 82 W/m 6,4 km/h (2 Bft) 97,87 %
29.07.2022 09:46 15,9 C 15,0 C 11,1 C 94 % 1016,2 hPa 0,0 l/m 0 min 0 min 87 W/m 6,4 km/h (2 Bft) 97,83 %
29.07.2022 09:48 15,9 C 15,6 C 11,1 C 94 % 1016,2 hPa 0,0 l/m 0 min 0 min 88 W/m 3,2 km/h (1 Bft) 97,87 %
29.07.2022 09:50 15,9 C 15,6 C 11,1 C 94 % 1016,3 hPa 0,0 l/m 0 min 0 min 88 W/m 3,2 km/h (1 Bft) 95,74 %
29.07.2022 09:52 15,9 C 15,6 C 11,1 C 94 % 1016,3 hPa 0,0 l/m 0 min 0 min 89 W/m 3,2 km/h (1 Bft) 91,49 %
29.07.2022 09:54 16,0 C 15,6 C 11,7 C 94 % 1016,4 hPa 0,0 l/m 0 min 0 min 91 W/m 3,2 km/h (1 Bft) 95,74 %
29.07.2022 09:56 16,0 C 15,6 C 11,7 C 94 % 1016,4 hPa 0,0 l/m 0 min 0 min 98 W/m 0,0 km/h (0 Bft) 97,87 %
29.07.2022 09:58 16,1 C 16,1 C 11,7 C 94 % 1016,4 hPa 0,0 l/m 0 min 0 min 114 W/m 3,2 km/h (1 Bft) 95,65 %
29.07.2022 10:00 16,1 C 16,1 C 11,7 C 94 % 1016,3 hPa 0,0 l/m 0 min 0 min 132 W/m 3,2 km/h (1 Bft) 97,87 %
29.07.2022 10:02 16,1 C 16,1 C 11,7 C 94 % 1016,3 hPa 0,0 l/m 0 min 0 min 139 W/m 3,2 km/h (1 Bft) 93,62 %
29.07.2022 10:04 16,2 C 16,1 C 11,7 C 94 % 1016,3 hPa 0,0 l/m 0 min 0 min 139 W/m 3,2 km/h (1 Bft) 95,74 %
29.07.2022 10:06 16,2 C 16,7 C 11,7 C 94 % 1016,2 hPa 0,0 l/m 0 min 0 min 139 W/m 3,2 km/h (1 Bft) 97,87 %
29.07.2022 10:08 16,3 C 16,1 C 11,7 C 94 % 1016,3 hPa 0,0 l/m 0 min 0 min 143 W/m 3,2 km/h (1 Bft) 97,87 %
29.07.2022 10:10 16,3 C 16,7 C 11,7 C 94 % 1016,3 hPa 0,0 l/m 0 min 0 min 149 W/m 3,2 km/h (1 Bft) 97,83 %
29.07.2022 10:12 16,3 C 16,7 C 11,7 C 94 % 1016,3 hPa 0,0 l/m 0 min 0 min 151 W/m 3,2 km/h (1 Bft) 97,87 %
29.07.2022 10:14 16,4 C 16,7 C 11,7 C 94 % 1016,3 hPa 0,0 l/m 0 min 0 min 153 W/m 6,4 km/h (2 Bft) 97,87 %
29.07.2022 10:16 16,3 C 16,7 C 11,7 C 94 % 1016,3 hPa 0,0 l/m 0 min 0 min 156 W/m 3,2 km/h (1 Bft) 97,87 %
29.07.2022 10:18 16,3 C 16,7 C 11,7 C 94 % 1016,2 hPa 0,0 l/m 0 min 0 min 161 W/m 6,4 km/h (2 Bft) 95,74 %
29.07.2022 10:20 16,3 C 16,7 C 11,7 C 94 % 1016,3 hPa 0,0 l/m 0 min 0 min 169 W/m 9,7 km/h (2 Bft) 95,74 %
29.07.2022 10:22 16,3 C 16,7 C 11,7 C 94 % 1016,3 hPa 0,0 l/m 0 min 0 min 175 W/m 3,2 km/h (1 Bft) 97,83 %
29.07.2022 10:24 16,4 C 16,7 C 11,7 C 94 % 1016,3 hPa 0,0 l/m 0 min 0 min 175 W/m 3,2 km/h (1 Bft) 97,14 %
29.07.2022 10:26 16,4 C 16,7 C 12,2 C 94 % 1016,3 hPa 0,0 l/m 0 min 0 min 171 W/m 6,4 km/h (2 Bft) 96,61 %
29.07.2022 10:28 16,5 C 16,7 C 11,7 C 94 % 1016,3 hPa 0,0 l/m 0 min 0 min 167 W/m 6,4 km/h (2 Bft) 97,87 %
29.07.2022 10:30 16,6 C 16,7 C 12,2 C 94 % 1016,3 hPa 0,0 l/m 0 min 0 min 167 W/m 6,4 km/h (2 Bft) 97,87 %
29.07.2022 10:32 16,6 C 16,7 C 12,2 C 93 % 1016,3 hPa 0,0 l/m 0 min 0 min 167 W/m 6,4 km/h (2 Bft) 93,62 %
29.07.2022 10:34 16,6 C 16,7 C 12,2 C 93 % 1016,3 hPa 0,0 l/m 0 min 0 min 161 W/m 6,4 km/h (2 Bft) 97,83 %
29.07.2022 10:36 16,6 C 16,7 C 12,8 C 93 % 1016,3 hPa 0,0 l/m 0 min 0 min 150 W/m 6,4 km/h (2 Bft) 97,87 %
29.07.2022 10:38 16,7 C 16,7 C 12,8 C 93 % 1016,3 hPa 0,0 l/m 0 min 0 min 140 W/m 12,9 km/h (3 Bft) 97,14 %
29.07.2022 10:40 16,7 C 16,7 C 12,8 C 93 % 1016,4 hPa 0,0 l/m 0 min 0 min 130 W/m 6,4 km/h (2 Bft) 98,31 %
29.07.2022 10:42 16,7 C 16,7 C 12,8 C 93 % 1016,4 hPa 0,0 l/m 0 min 0 min 119 W/m 3,2 km/h (1 Bft) 100,00 %
29.07.2022 10:44 16,8 C 16,7 C 12,8 C 92 % 1016,5 hPa 0,0 l/m 0 min 0 min 109 W/m 3,2 km/h (1 Bft) 100,00 %
29.07.2022 10:46 16,8 C 16,7 C 12,8 C 92 % 1016,6 hPa 0,0 l/m 0 min 0 min 103 W/m 3,2 km/h (1 Bft) 100,00 %
29.07.2022 10:48 16,8 C 16,7 C 12,8 C 92 % 1016,6 hPa 0,0 l/m 0 min 0 min 97 W/m 6,4 km/h (2 Bft) 100,00 %
29.07.2022 10:50 16,8 C 16,7 C 12,8 C 92 % 1016,7 hPa 0,0 l/m 0 min 0 min 94 W/m 6,4 km/h (2 Bft) 100,00 %
29.07.2022 10:52 16,8 C 16,7 C 12,8 C 92 % 1016,7 hPa 0,0 l/m 0 min 0 min 94 W/m 9,7 km/h (2 Bft) 100,00 %
29.07.2022 10:54 16,8 C 16,7 C 12,8 C 92 % 1016,8 hPa 0,0 l/m 0 min 0 min 96 W/m 3,2 km/h (1 Bft) 100,00 %
29.07.2022 10:56 16,9 C 16,7 C 12,8 C 92 % 1016,7 hPa 0,0 l/m 0 min 0 min 102 W/m 3,2 km/h (1 Bft) 97,87 %
29.07.2022 10:58 16,9 C 16,7 C 13,3 C 92 % 1016,7 hPa 0,0 l/m 0 min 0 min 107 W/m 6,4 km/h (2 Bft) 97,83 %
29.07.2022 11:00 16,9 C 16,7 C 13,3 C 91 % 1016,6 hPa 0,0 l/m 0 min 0 min 111 W/m 3,2 km/h (1 Bft) 100,00 %
29.07.2022 11:02 17,0 C 16,7 C 13,3 C 91 % 1016,7 hPa 0,0 l/m 0 min 0 min 107 W/m 3,2 km/h (1 Bft) 100,00 %
29.07.2022 11:04 17,1 C 16,7 C 13,3 C 91 % 1016,6 hPa 0,0 l/m 0 min 0 min 105 W/m 3,2 km/h (1 Bft) 100,00 %
29.07.2022 11:06 17,1 C 17,2 C 13,3 C 91 % 1016,6 hPa 0,0 l/m 0 min 0 min 104 W/m 3,2 km/h (1 Bft) 100,00 %
29.07.2022 11:08 17,1 C 17,2 C 13,3 C 91 % 1016,5 hPa 0,0 l/m 0 min 0 min 104 W/m 6,4 km/h (2 Bft) 97,87 %
29.07.2022 11:10 17,1 C 17,2 C 13,3 C 91 % 1016,5 hPa 0,0 l/m 0 min 0 min 105 W/m 3,2 km/h (1 Bft) 100,00 %
29.07.2022 11:12 17,2 C 17,2 C 13,3 C 91 % 1016,5 hPa 0,0 l/m 0 min 0 min 107 W/m 3,2 km/h (1 Bft) 98,28 %
29.07.2022 11:14 17,2 C 17,2 C 13,3 C 91 % 1016,5 hPa 0,0 l/m 0 min 0 min 105 W/m 3,2 km/h (1 Bft) 100,00 %
29.07.2022 11:16 17,2 C 17,2 C 13,3 C 90 % 1016,4 hPa 0,0 l/m 0 min 0 min 105 W/m 3,2 km/h (1 Bft) 98,31 %
29.07.2022 11:18 17,2 C 17,2 C 13,3 C 90 % 1016,4 hPa 0,0 l/m 0 min 0 min 105 W/m 6,4 km/h (2 Bft) 93,62 %
29.07.2022 11:20 17,2 C 17,2 C 13,3 C 90 % 1016,4 hPa 0,0 l/m 0 min 0 min 109 W/m 3,2 km/h (1 Bft) 100,00 %
29.07.2022 11:22 17,2 C 17,2 C 13,3 C 90 % 1016,3 hPa 0,0 l/m 0 min 0 min 111 W/m 6,4 km/h (2 Bft) 97,87 %
29.07.2022 11:24 17,2 C 17,2 C 13,3 C 90 % 1016,3 hPa 0,0 l/m 0 min 0 min 114 W/m 3,2 km/h (1 Bft) 94,83 %
29.07.2022 11:26 17,3 C 17,2 C 13,3 C 89 % 1016,3 hPa 0,0 l/m 0 min 0 min 118 W/m 9,7 km/h (2 Bft) 94,29 %
29.07.2022 11:28 17,3 C 17,2 C 13,3 C 89 % 1016,3 hPa 0,0 l/m 0 min 0 min 126 W/m 6,4 km/h (2 Bft) 95,74 %
29.07.2022 11:30 17,3 C 17,2 C 13,3 C 89 % 1016,3 hPa 0,0 l/m 0 min 0 min 135 W/m 6,4 km/h (2 Bft) 95,74 %
29.07.2022 11:32 17,3 C 17,2 C 13,3 C 89 % 1016,3 hPa 0,0 l/m 0 min 0 min 152 W/m 6,4 km/h (2 Bft) 93,62 %
29.07.2022 11:34 17,3 C 17,8 C 13,9 C 89 % 1016,4 hPa 0,0 l/m 0 min 0 min 183 W/m 3,2 km/h (1 Bft) 93,62 %
29.07.2022 11:36 17,4 C 17,8 C 13,9 C 89 % 1016,5 hPa 0,0 l/m 0 min 0 min 217 W/m 6,4 km/h (2 Bft) 94,83 %
29.07.2022 11:38 17,4 C 17,8 C 13,9 C 88 % 1016,5 hPa 0,0 l/m 0 min 0 min 254 W/m 6,4 km/h (2 Bft) 95,74 %
29.07.2022 11:40 17,5 C 18,3 C 14,4 C 88 % 1016,5 hPa 0,0 l/m 0 min 0 min 279 W/m 3,2 km/h (1 Bft) 97,14 %
29.07.2022 11:42 17,6 C 18,3 C 14,4 C 88 % 1016,5 hPa 0,0 l/m 0 min 0 min 314 W/m 3,2 km/h (1 Bft) 95,74 %
29.07.2022 11:44 17,6 C 18,9 C 15,0 C 88 % 1016,6 hPa 0,0 l/m 0 min 0 min 346 W/m 6,4 km/h (2 Bft) 94,55 %
29.07.2022 11:46 17,7 C 18,9 C 15,0 C 88 % 1016,5 hPa 0,0 l/m 0 min 0 min 351 W/m 6,4 km/h (2 Bft) 95,92 %
29.07.2022 11:48 17,8 C 18,9 C 15,0 C 88 % 1016,6 hPa 0,0 l/m 0 min 0 min 365 W/m 3,2 km/h (1 Bft) 93,75 %
29.07.2022 11:50 17,9 C 18,9 C 15,6 C 87 % 1016,6 hPa 0,0 l/m 2 min 0 min 425 W/m 3,2 km/h (1 Bft) 95,74 %
29.07.2022 11:52 18,1 C 19,4 C 15,6 C 87 % 1016,6 hPa 0,0 l/m 2 min 0 min 431 W/m 3,2 km/h (1 Bft) 95,74 %
29.07.2022 11:54 18,3 C 20,0 C 16,1 C 88 % 1016,6 hPa 0,0 l/m 2 min 0 min 503 W/m 6,4 km/h (2 Bft) 95,74 %
29.07.2022 11:56 18,4 C 20,0 C 16,1 C 88 % 1016,6 hPa 0,0 l/m 2 min 0 min 529 W/m 9,7 km/h (2 Bft) 97,83 %
29.07.2022 11:58 18,4 C 20,0 C 16,1 C 88 % 1016,6 hPa 0,0 l/m 2 min 0 min 448 W/m 9,7 km/h (2 Bft) 97,87 %
29.07.2022 12:00 18,6 C 20,6 C 16,1 C 87 % 1016,6 hPa 0,0 l/m 2 min 0 min 533 W/m 3,2 km/h (1 Bft) 97,87 %
29.07.2022 12:02 18,6 C 20,6 C 16,7 C 87 % 1016,7 hPa 0,0 l/m 2 min 0 min 675 W/m 9,7 km/h (2 Bft) 97,87 %
29.07.2022 12:04 18,7 C 20,0 C 16,7 C 87 % 1016,7 hPa 0,0 l/m 2 min 0 min 634 W/m 3,2 km/h (1 Bft) 97,87 %
29.07.2022 12:08 18,9 C 21,1 C 16,7 C 86 % 1016,7 hPa 0,0 l/m 4 min 0 min 627 W/m 9,7 km/h (2 Bft) 100,00 %
29.07.2022 12:10 19,1 C 21,7 C 17,2 C 86 % 1016,8 hPa 0,0 l/m 2 min 0 min 926 W/m 3,2 km/h (1 Bft) 100,00 %
29.07.2022 12:12 19,3 C 22,8 C 18,3 C 86 % 1016,8 hPa 0,0 l/m 2 min 0 min 930 W/m 9,7 km/h (2 Bft) 100,00 %
29.07.2022 12:14 19,4 C 22,2 C 18,9 C 86 % 1016,7 hPa 0,0 l/m 2 min 0 min 840 W/m 6,4 km/h (2 Bft) 100,00 %
29.07.2022 12:16 19,5 C 22,2 C 20,0 C 85 % 1016,8 hPa 0,0 l/m 2 min 0 min 841 W/m 12,9 km/h (3 Bft) 100,00 %
29.07.2022 12:18 19,6 C 22,2 C 20,0 C 84 % 1016,8 hPa 0,0 l/m 2 min 0 min 806 W/m 9,7 km/h (2 Bft) 100,00 %
29.07.2022 12:20 19,7 C 22,8 C 21,1 C 84 % 1016,8 hPa 0,0 l/m 2 min 0 min 811 W/m 12,9 km/h (3 Bft) 100,00 %
29.07.2022 12:22 19,8 C 22,8 C 21,7 C 84 % 1016,8 hPa 0,0 l/m 2 min 0 min 784 W/m 12,9 km/h (3 Bft) 100,00 %
29.07.2022 12:24 19,9 C 22,2 C 22,2 C 83 % 1016,8 hPa 0,0 l/m 2 min 0 min 846 W/m 12,9 km/h (3 Bft) 100,00 %
29.07.2022 12:26 19,9 C 22,8 C 22,8 C 83 % 1016,8 hPa 0,0 l/m 2 min 0 min 877 W/m 9,7 km/h (2 Bft) 100,00 %
29.07.2022 12:28 20,1 C 23,3 C 23,3 C 83 % 1016,8 hPa 0,0 l/m 2 min 0 min 862 W/m 12,9 km/h (3 Bft) 100,00 %
29.07.2022 12:30 20,1 C 23,3 C 22,8 C 81 % 1016,8 hPa 0,0 l/m 2 min 0 min 890 W/m 16,1 km/h (3 Bft) 100,00 %
29.07.2022 12:32 20,2 C 23,3 C 22,2 C 81 % 1016,8 hPa 0,0 l/m 2 min 0 min 891 W/m 12,9 km/h (3 Bft) 97,83 %
29.07.2022 12:34 20,3 C 22,8 C 21,1 C 81 % 1016,7 hPa 0,0 l/m 2 min 0 min 479 W/m 12,9 km/h (3 Bft) 100,00 %
29.07.2022 12:36 20,3 C 22,2 C 20,0 C 79 % 1016,8 hPa 0,0 l/m 0 min 0 min 266 W/m 9,7 km/h (2 Bft) 97,87 %
29.07.2022 12:38 20,3 C 21,7 C 18,9 C 79 % 1016,8 hPa 0,0 l/m 0 min 0 min 320 W/m 9,7 km/h (2 Bft) 100,00 %
29.07.2022 12:40 20,2 C 21,1 C 18,3 C 78 % 1016,8 hPa 0,0 l/m 0 min 0 min 351 W/m 3,2 km/h (1 Bft) 97,87 %
29.07.2022 12:42 20,2 C 21,1 C 18,3 C 78 % 1016,8 hPa 0,0 l/m 0 min 0 min 381 W/m 9,7 km/h (2 Bft) 97,87 %
29.07.2022 12:44 20,2 C 21,1 C 17,8 C 79 % 1016,8 hPa 0,0 l/m 0 min 0 min 377 W/m 6,4 km/h (2 Bft) 97,83 %
29.07.2022 12:46 20,3 C 21,1 C 17,8 C 79 % 1016,8 hPa 0,0 l/m 0 min 0 min 350 W/m 9,7 km/h (2 Bft) 97,87 %
29.07.2022 12:48 20,3 C 21,1 C 17,8 C 78 % 1016,8 hPa 0,0 l/m 0 min 0 min 318 W/m 9,7 km/h (2 Bft) 97,87 %
29.07.2022 12:50 20,3 C 21,1 C 17,8 C 78 % 1016,8 hPa 0,0 l/m 0 min 0 min 300 W/m 6,4 km/h (2 Bft) 97,87 %
29.07.2022 12:52 20,3 C 20,6 C 17,2 C 77 % 1016,7 hPa 0,0 l/m 0 min 0 min 295 W/m 6,4 km/h (2 Bft) 97,87 %
29.07.2022 12:54 20,3 C 20,6 C 17,2 C 78 % 1016,7 hPa 0,0 l/m 0 min 0 min 292 W/m 3,2 km/h (1 Bft) 97,87 %
29.07.2022 12:56 20,3 C 21,1 C 17,2 C 78 % 1016,8 hPa 0,0 l/m 0 min 0 min 290 W/m 6,4 km/h (2 Bft) 95,65 %
29.07.2022 12:58 20,3 C 21,1 C 17,2 C 76 % 1016,8 hPa 0,0 l/m 0 min 0 min 285 W/m 9,7 km/h (2 Bft) 95,74 %
29.07.2022 13:00 20,3 C 21,1 C 17,2 C 76 % 1016,8 hPa 0,0 l/m 0 min 0 min 271 W/m 3,2 km/h (1 Bft) 97,87 %
29.07.2022 13:02 20,3 C 21,1 C 17,2 C 75 % 1016,8 hPa 0,0 l/m 0 min 0 min 253 W/m 9,7 km/h (2 Bft) 97,87 %
29.07.2022 13:04 20,3 C 21,1 C 17,2 C 75 % 1016,8 hPa 0,0 l/m 0 min 0 min 240 W/m 6,4 km/h (2 Bft) 97,87 %
29.07.2022 13:06 20,3 C 21,1 C 16,7 C 74 % 1016,8 hPa 0,0 l/m 0 min 0 min 236 W/m 6,4 km/h (2 Bft) 95,74 %
29.07.2022 13:08 20,3 C 20,6 C 16,7 C 74 % 1016,8 hPa 0,0 l/m 0 min 0 min 247 W/m 9,7 km/h (2 Bft) 97,83 %
29.07.2022 13:10 20,3 C 20,6 C 16,7 C 73 % 1016,8 hPa 0,0 l/m 0 min 0 min 264 W/m 3,2 km/h (1 Bft) 97,87 %
29.07.2022 13:12 20,3 C 21,1 C 16,7 C 73 % 1016,8 hPa 0,0 l/m 0 min 0 min 285 W/m 12,9 km/h (3 Bft) 95,74 %
29.07.2022 13:14 20,3 C 20,6 C 16,7 C 73 % 1016,8 hPa 0,0 l/m 0 min 0 min 310 W/m 9,7 km/h (2 Bft) 95,74 %
29.07.2022 13:16 20,4 C 21,1 C 17,2 C 73 % 1016,8 hPa 0,0 l/m 0 min 0 min 326 W/m 9,7 km/h (2 Bft) 97,87 %
29.07.2022 13:18 20,4 C 21,1 C 17,2 C 73 % 1016,8 hPa 0,0 l/m 0 min 0 min 329 W/m 6,4 km/h (2 Bft) 97,87 %
29.07.2022 13:20 20,5 C 21,1 C 17,2 C 73 % 1016,8 hPa 0,0 l/m 0 min 0 min 335 W/m 6,4 km/h (2 Bft) 95,65 %
29.07.2022 13:22 20,5 C 21,1 C 17,2 C 73 % 1016,8 hPa 0,0 l/m 0 min 0 min 352 W/m 6,4 km/h (2 Bft) 95,74 %
29.07.2022 13:24 20,6 C 21,1 C 17,2 C 72 % 1016,8 hPa 0,0 l/m 0 min 0 min 351 W/m 12,9 km/h (3 Bft) 97,87 %
29.07.2022 13:26 20,6 C 21,1 C 17,2 C 73 % 1016,8 hPa 0,0 l/m 0 min 0 min 338 W/m 12,9 km/h (3 Bft) 97,87 %
29.07.2022 13:28 20,7 C 21,1 C 17,2 C 74 % 1016,8 hPa 0,0 l/m 0 min 0 min 315 W/m 9,7 km/h (2 Bft) 95,74 %
29.07.2022 13:30 20,7 C 21,1 C 17,2 C 73 % 1016,8 hPa 0,0 l/m 0 min 0 min 293 W/m 9,7 km/h (2 Bft) 97,87 %
29.07.2022 13:32 20,7 C 21,1 C 17,2 C 73 % 1016,8 hPa 0,0 l/m 0 min 0 min 271 W/m 9,7 km/h (2 Bft) 97,83 %
29.07.2022 13:34 20,7 C 21,1 C 17,2 C 74 % 1016,8 hPa 0,0 l/m 0 min 0 min 266 W/m 9,7 km/h (2 Bft) 97,87 %
29.07.2022 13:36 20,7 C 20,6 C 17,2 C 74 % 1016,8 hPa 0,0 l/m 0 min 0 min 263 W/m 9,7 km/h (2 Bft) 97,87 %
29.07.2022 13:38 20,8 C 20,6 C 17,2 C 74 % 1016,7 hPa 0,0 l/m 0 min 0 min 255 W/m 6,4 km/h (2 Bft) 97,87 %
29.07.2022 13:40 20,8 C 20,6 C 17,2 C 75 % 1016,8 hPa 0,0 l/m 0 min 0 min 247 W/m 6,4 km/h (2 Bft) 97,87 %
29.07.2022 13:42 20,8 C 21,1 C 17,2 C 75 % 1016,8 hPa 0,0 l/m 0 min 0 min 242 W/m 9,7 km/h (2 Bft) 97,87 %
29.07.2022 13:44 20,8 C 20,6 C 17,2 C 75 % 1016,8 hPa 0,0 l/m 0 min 0 min 248 W/m 12,9 km/h (3 Bft) 97,83 %
29.07.2022 13:46 20,8 C 20,6 C 16,7 C 74 % 1016,7 hPa 0,0 l/m 0 min 0 min 255 W/m 16,1 km/h (3 Bft) 97,87 %
29.07.2022 13:48 20,8 C 20,6 C 17,2 C 75 % 1016,8 hPa 0,0 l/m 0 min 0 min 263 W/m 6,4 km/h (2 Bft) 97,87 %
29.07.2022 13:50 20,8 C 20,6 C 17,2 C 74 % 1016,8 hPa 0,0 l/m 0 min 0 min 278 W/m 12,9 km/h (3 Bft) 97,87 %
29.07.2022 13:52 20,8 C 21,1 C 17,2 C 74 % 1016,9 hPa 0,0 l/m 0 min 0 min 371 W/m 6,4 km/h (2 Bft) 95,74 %
29.07.2022 13:54 20,8 C 21,1 C 17,2 C 74 % 1016,8 hPa 0,0 l/m 0 min 0 min 377 W/m 9,7 km/h (2 Bft) 97,87 %
29.07.2022 13:56 20,8 C 21,1 C 17,2 C 74 % 1016,9 hPa 0,0 l/m 0 min 0 min 315 W/m 16,1 km/h (3 Bft) 95,65 %
29.07.2022 13:58 20,8 C 21,1 C 17,2 C 73 % 1016,8 hPa 0,0 l/m 0 min 0 min 327 W/m 12,9 km/h (3 Bft) 100,00 %
29.07.2022 14:00 20,8 C 21,7 C 17,2 C 73 % 1016,8 hPa 0,0 l/m 0 min 0 min 326 W/m 9,7 km/h (2 Bft) 100,00 %
29.07.2022 14:02 20,9 C 21,7 C 17,8 C 73 % 1016,8 hPa 0,0 l/m 0 min 0 min 314 W/m 19,3 km/h (3 Bft) 100,00 %
29.07.2022 14:04 20,9 C 21,1 C 17,2 C 73 % 1016,8 hPa 0,0 l/m 0 min 0 min 301 W/m 16,1 km/h (3 Bft) 100,00 %
29.07.2022 14:06 20,9 C 21,1 C 17,2 C 72 % 1016,8 hPa 0,0 l/m 0 min 0 min 300 W/m 6,4 km/h (2 Bft) 100,00 %
29.07.2022 14:08 20,9 C 21,1 C 17,2 C 72 % 1016,8 hPa 0,0 l/m 0 min 0 min 308 W/m 12,9 km/h (3 Bft) 100,00 %
29.07.2022 14:10 20,9 C 21,1 C 17,2 C 73 % 1016,8 hPa 0,0 l/m 0 min 0 min 322 W/m 16,1 km/h (3 Bft) 100,00 %
29.07.2022 14:12 20,9 C 21,1 C 17,2 C 72 % 1016,8 hPa 0,0 l/m 0 min 0 min 338 W/m 9,7 km/h (2 Bft) 100,00 %
29.07.2022 14:14 20,9 C 21,7 C 17,2 C 72 % 1016,8 hPa 0,0 l/m 0 min 0 min 350 W/m 12,9 km/h (3 Bft) 100,00 %
29.07.2022 14:16 20,9 C 21,1 C 17,2 C 72 % 1016,8 hPa 0,0 l/m 0 min 0 min 363 W/m 12,9 km/h (3 Bft) 100,00 %
29.07.2022 14:18 21,0 C 21,7 C 17,8 C 72 % 1016,8 hPa 0,0 l/m 0 min 0 min 362 W/m 12,9 km/h (3 Bft) 100,00 %
29.07.2022 14:20 21,1 C 21,7 C 17,2 C 72 % 1016,9 hPa 0,0 l/m 0 min 0 min 369 W/m 9,7 km/h (2 Bft) 100,00 %
29.07.2022 14:22 21,1 C 21,7 C 17,8 C 72 % 1016,8 hPa 0,0 l/m 0 min 0 min 398 W/m 12,9 km/h (3 Bft) 97,87 %
29.07.2022 14:24 21,1 C 22,2 C 17,2 C 71 % 1016,9 hPa 0,0 l/m 2 min 0 min 433 W/m 19,3 km/h (3 Bft) 97,87 %
29.07.2022 14:26 21,1 C 22,8 C 17,8 C 71 % 1016,8 hPa 0,0 l/m 2 min 0 min 429 W/m 16,1 km/h (3 Bft) 100,00 %
29.07.2022 14:28 21,2 C 22,2 C 17,8 C 71 % 1016,8 hPa 0,0 l/m 2 min 0 min 441 W/m 19,3 km/h (3 Bft) 100,00 %
29.07.2022 14:30 21,3 C 22,8 C 17,8 C 71 % 1016,9 hPa 0,0 l/m 2 min 0 min 672 W/m 19,3 km/h (3 Bft) 100,00 %
29.07.2022 14:32 21,4 C 23,3 C 17,8 C 71 % 1016,8 hPa 0,0 l/m 2 min 0 min 791 W/m 12,9 km/h (3 Bft) 97,83 %
29.07.2022 14:34 21,6 C 23,9 C 18,3 C 72 % 1016,8 hPa 0,0 l/m 2 min 0 min 617 W/m 9,7 km/h (2 Bft) 100,00 %
29.07.2022 14:36 21,7 C 24,4 C 18,3 C 73 % 1016,8 hPa 0,0 l/m 2 min 0 min 986 W/m 9,7 km/h (2 Bft) 100,00 %
29.07.2022 14:38 21,9 C 25,0 C 18,9 C 73 % 1016,9 hPa 0,0 l/m 2 min 0 min 1008 W/m 12,9 km/h (3 Bft) 100,00 %
29.07.2022 14:40 22,1 C 25,6 C 18,9 C 71 % 1016,9 hPa 0,0 l/m 2 min 0 min 1016 W/m 19,3 km/h (3 Bft) 97,87 %
29.07.2022 14:42 22,2 C 26,1 C 18,9 C 71 % 1016,8 hPa 0,0 l/m 2 min 0 min 1001 W/m 12,9 km/h (3 Bft) 100,00 %
29.07.2022 14:44 22,3 C 26,1 C 18,9 C 71 % 1016,8 hPa 0,0 l/m 2 min 0 min 1011 W/m 9,7 km/h (2 Bft) 97,83 %
29.07.2022 14:46 22,5 C 25,6 C 18,9 C 72 % 1016,8 hPa 0,0 l/m 2 min 0 min 758 W/m 19,3 km/h (3 Bft) 95,74 %
29.07.2022 14:48 22,6 C 25,0 C 18,3 C 71 % 1016,8 hPa 0,0 l/m 2 min 0 min 756 W/m 16,1 km/h (3 Bft) 97,87 %
29.07.2022 14:50 22,6 C 25,0 C 18,3 C 71 % 1016,7 hPa 0,0 l/m 2 min 0 min 953 W/m 12,9 km/h (3 Bft) 97,87 %
29.07.2022 14:52 22,7 C 25,6 C 18,3 C 72 % 1016,7 hPa 0,0 l/m 2 min 0 min 941 W/m 12,9 km/h (3 Bft) 97,87 %
29.07.2022 14:54 22,7 C 25,0 C 18,3 C 70 % 1016,7 hPa 0,0 l/m 2 min 0 min 932 W/m 16,1 km/h (3 Bft) 95,74 %
29.07.2022 14:56 22,7 C 25,0 C 18,3 C 69 % 1016,7 hPa 0,0 l/m 2 min 0 min 909 W/m 6,4 km/h (2 Bft) 97,83 %
29.07.2022 14:58 22,7 C 25,0 C 18,3 C 70 % 1016,7 hPa 0,0 l/m 2 min 0 min 907 W/m 19,3 km/h (3 Bft) 97,87 %
29.07.2022 15:00 22,8 C 25,6 C 18,3 C 69 % 1016,6 hPa 0,0 l/m 2 min 0 min 889 W/m 16,1 km/h (3 Bft) 97,87 %
29.07.2022 15:02 22,9 C 26,1 C 18,3 C 70 % 1016,6 hPa 0,0 l/m 2 min 0 min 872 W/m 29,0 km/h (5 Bft) 97,87 %
29.07.2022 15:04 22,9 C 26,1 C 18,3 C 68 % 1016,7 hPa 0,0 l/m 2 min 0 min 854 W/m 16,1 km/h (3 Bft) 97,87 %
29.07.2022 15:06 23,1 C 26,1 C 18,9 C 68 % 1016,7 hPa 0,0 l/m 2 min 0 min 848 W/m 12,9 km/h (3 Bft) 95,74 %
29.07.2022 15:08 23,0 C 26,1 C 18,3 C 67 % 1016,7 hPa 0,0 l/m 2 min 0 min 850 W/m 9,7 km/h (2 Bft) 97,83 %
29.07.2022 15:10 23,1 C 25,6 C 18,3 C 66 % 1016,7 hPa 0,0 l/m 2 min 0 min 849 W/m 19,3 km/h (3 Bft) 95,74 %
29.07.2022 15:12 23,1 C 26,1 C 18,9 C 67 % 1016,7 hPa 0,0 l/m 2 min 0 min 838 W/m 12,9 km/h (3 Bft) 95,74 %
29.07.2022 15:14 23,1 C 26,1 C 18,9 C 66 % 1016,7 hPa 0,0 l/m 2 min 0 min 855 W/m 9,7 km/h (2 Bft) 93,62 %
29.07.2022 15:16 23,2 C 26,1 C 18,9 C 66 % 1016,7 hPa 0,0 l/m 2 min 0 min 856 W/m 6,4 km/h (2 Bft) 95,74 %
29.07.2022 15:18 23,3 C 26,7 C 18,9 C 66 % 1016,7 hPa 0,0 l/m 2 min 0 min 837 W/m 12,9 km/h (3 Bft) 95,74 %
29.07.2022 15:20 23,4 C 26,7 C 18,9 C 66 % 1016,8 hPa 0,0 l/m 2 min 0 min 817 W/m 16,1 km/h (3 Bft) 95,65 %
29.07.2022 15:22 23,4 C 26,7 C 18,9 C 66 % 1016,8 hPa 0,0 l/m 2 min 0 min 838 W/m 16,1 km/h (3 Bft) 93,62 %
29.07.2022 15:24 23,5 C 26,7 C 18,9 C 65 % 1016,8 hPa 0,0 l/m 2 min 0 min 839 W/m 19,3 km/h (3 Bft) 95,74 %
29.07.2022 15:26 23,6 C 26,7 C 18,9 C 64 % 1016,8 hPa 0,0 l/m 2 min 0 min 828 W/m 22,5 km/h (4 Bft) 95,74 %
29.07.2022 15:28 23,6 C 26,1 C 18,9 C 65 % 1016,8 hPa 0,0 l/m 2 min 0 min 776 W/m 19,3 km/h (3 Bft) 93,62 %
29.07.2022 15:30 23,6 C 26,1 C 18,9 C 65 % 1016,8 hPa 0,0 l/m 2 min 0 min 814 W/m 12,9 km/h (3 Bft) 91,49 %
29.07.2022 15:32 23,6 C 26,1 C 18,9 C 64 % 1016,7 hPa 0,0 l/m 2 min 0 min 810 W/m 9,7 km/h (2 Bft) 89,13 %
29.07.2022 15:34 23,6 C 26,1 C 18,9 C 65 % 1016,7 hPa 0,0 l/m 2 min 0 min 808 W/m 16,1 km/h (3 Bft) 93,62 %
29.07.2022 15:36 23,5 C 25,6 C 18,9 C 64 % 1016,7 hPa 0,0 l/m 2 min 0 min 813 W/m 9,7 km/h (2 Bft) 91,49 %
29.07.2022 15:38 23,6 C 26,1 C 18,9 C 65 % 1016,7 hPa 0,0 l/m 2 min 0 min 805 W/m 19,3 km/h (3 Bft) 93,62 %
29.07.2022 15:40 23,6 C 26,1 C 18,9 C 64 % 1016,7 hPa 0,0 l/m 2 min 0 min 800 W/m 16,1 km/h (3 Bft) 95,74 %
29.07.2022 15:42 23,6 C 26,1 C 18,9 C 64 % 1016,7 hPa 0,0 l/m 2 min 0 min 790 W/m 22,5 km/h (4 Bft) 95,65 %
29.07.2022 15:44 23,6 C 26,7 C 18,9 C 64 % 1016,6 hPa 0,0 l/m 2 min 0 min 784 W/m 12,9 km/h (3 Bft) 95,74 %
29.07.2022 15:46 23,7 C 27,2 C 18,9 C 64 % 1016,6 hPa 0,0 l/m 2 min 0 min 776 W/m 16,1 km/h (3 Bft) 95,74 %
29.07.2022 15:48 23,8 C 27,2 C 18,9 C 65 % 1016,6 hPa 0,0 l/m 2 min 0 min 777 W/m 9,7 km/h (2 Bft) 93,62 %
29.07.2022 15:50 23,9 C 27,2 C 18,9 C 64 % 1016,6 hPa 0,0 l/m 2 min 0 min 773 W/m 19,3 km/h (3 Bft) 93,62 %
29.07.2022 15:52 23,9 C 27,2 C 18,9 C 63 % 1016,6 hPa 0,0 l/m 2 min 0 min 761 W/m 16,1 km/h (3 Bft) 95,74 %
29.07.2022 15:54 24,0 C 27,8 C 19,4 C 63 % 1016,6 hPa 0,0 l/m 2 min 0 min 757 W/m 16,1 km/h (3 Bft) 95,74 %
29.07.2022 15:56 24,0 C 27,2 C 19,4 C 63 % 1016,6 hPa 0,0 l/m 2 min 0 min 767 W/m 12,9 km/h (3 Bft) 95,65 %
29.07.2022 15:58 24,1 C 27,8 C 19,4 C 64 % 1016,6 hPa 0,0 l/m 2 min 0 min 771 W/m 16,1 km/h (3 Bft) 97,87 %
29.07.2022 16:00 24,1 C 27,2 C 19,4 C 62 % 1016,6 hPa 0,0 l/m 2 min 0 min 748 W/m 16,1 km/h (3 Bft) 97,87 %
29.07.2022 16:02 24,1 C 27,8 C 19,4 C 61 % 1016,6 hPa 0,0 l/m 2 min 0 min 777 W/m 25,7 km/h (4 Bft) 100,00 %
29.07.2022 16:04 24,1 C 28,3 C 19,4 C 61 % 1016,5 hPa 0,0 l/m 2 min 0 min 779 W/m 16,1 km/h (3 Bft) 100,00 %
29.07.2022 16:06 24,2 C 27,8 C 19,4 C 60 % 1016,5 hPa 0,0 l/m 2 min 0 min 775 W/m 19,3 km/h (3 Bft) 100,00 %
29.07.2022 16:08 24,2 C 27,8 C 19,4 C 59 % 1016,5 hPa 0,0 l/m 2 min 0 min 708 W/m 16,1 km/h (3 Bft) 100,00 %
29.07.2022 16:10 24,2 C 27,2 C 19,4 C 59 % 1016,5 hPa 0,0 l/m 2 min 0 min 652 W/m 12,9 km/h (3 Bft) 100,00 %
29.07.2022 16:12 24,2 C 27,8 C 19,4 C 59 % 1016,4 hPa 0,0 l/m 2 min 0 min 641 W/m 12,9 km/h (3 Bft) 97,83 %
29.07.2022 16:14 24,3 C 28,3 C 19,4 C 59 % 1016,4 hPa 0,0 l/m 2 min 0 min 651 W/m 12,9 km/h (3 Bft) 97,87 %
29.07.2022 16:16 24,3 C 28,3 C 20,0 C 59 % 1016,4 hPa 0,0 l/m 2 min 0 min 747 W/m 12,9 km/h (3 Bft) 100,00 %
29.07.2022 16:18 24,4 C 28,9 C 20,0 C 59 % 1016,5 hPa 0,0 l/m 2 min 0 min 765 W/m 12,9 km/h (3 Bft) 100,00 %
29.07.2022 16:20 24,6 C 29,4 C 20,0 C 59 % 1016,5 hPa 0,0 l/m 2 min 0 min 711 W/m 12,9 km/h (3 Bft) 100,00 %
29.07.2022 16:22 24,6 C 29,4 C 20,0 C 59 % 1016,5 hPa 0,0 l/m 2 min 0 min 679 W/m 12,9 km/h (3 Bft) 97,83 %
29.07.2022 16:24 24,6 C 29,4 C 20,0 C 57 % 1016,5 hPa 0,0 l/m 2 min 0 min 725 W/m 12,9 km/h (3 Bft) 97,87 %
29.07.2022 16:26 24,5 C 28,3 C 20,0 C 56 % 1016,5 hPa 0,0 l/m 2 min 0 min 697 W/m 19,3 km/h (3 Bft) 100,00 %
29.07.2022 16:28 24,5 C 28,9 C 20,0 C 56 % 1016,5 hPa 0,0 l/m 2 min 0 min 710 W/m 16,1 km/h (3 Bft) 100,00 %
29.07.2022 16:30 24,6 C 28,9 C 20,0 C 56 % 1016,5 hPa 0,0 l/m 2 min 0 min 710 W/m 22,5 km/h (4 Bft) 100,00 %
29.07.2022 16:32 24,6 C 29,4 C 20,0 C 57 % 1016,4 hPa 0,0 l/m 2 min 0 min 664 W/m 9,7 km/h (2 Bft) 100,00 %
29.07.2022 16:34 24,6 C 28,9 C 20,0 C 56 % 1016,4 hPa 0,0 l/m 2 min 0 min 708 W/m 19,3 km/h (3 Bft) 100,00 %
29.07.2022 16:36 24,6 C 29,4 C 20,0 C 57 % 1016,4 hPa 0,0 l/m 2 min 0 min 707 W/m 12,9 km/h (3 Bft) 100,00 %
29.07.2022 16:38 24,7 C 30,0 C 20,0 C 58 % 1016,4 hPa 0,0 l/m 2 min 0 min 719 W/m 12,9 km/h (3 Bft) 100,00 %
29.07.2022 16:40 24,8 C 31,1 C 20,6 C 56 % 1016,4 hPa 0,0 l/m 2 min 0 min 723 W/m 12,9 km/h (3 Bft) 100,00 %
29.07.2022 16:42 24,9 C 30,6 C 20,6 C 56 % 1016,4 hPa 0,0 l/m 2 min 0 min 716 W/m 19,3 km/h (3 Bft) 100,00 %
29.07.2022 16:44 25,1 C 30,6 C 20,6 C 56 % 1016,4 hPa 0,0 l/m 2 min 0 min 713 W/m 16,1 km/h (3 Bft) 100,00 %
29.07.2022 16:46 25,1 C 31,1 C 20,6 C 56 % 1016,5 hPa 0,0 l/m 2 min 0 min 704 W/m 22,5 km/h (4 Bft) 100,00 %
29.07.2022 16:48 25,2 C 31,1 C 20,6 C 56 % 1016,4 hPa 0,0 l/m 2 min 0 min 693 W/m 19,3 km/h (3 Bft) 100,00 %
29.07.2022 16:50 25,2 C 30,6 C 20,6 C 57 % 1016,4 hPa 0,0 l/m 2 min 0 min 675 W/m 12,9 km/h (3 Bft) 100,00 %
29.07.2022 16:52 25,2 C 31,1 C 21,1 C 57 % 1016,4 hPa 0,0 l/m 2 min 0 min 680 W/m 16,1 km/h (3 Bft) 100,00 %
29.07.2022 16:54 25,3 C 31,1 C 20,6 C 57 % 1016,4 hPa 0,0 l/m 2 min 0 min 674 W/m 12,9 km/h (3 Bft) 100,00 %
29.07.2022 16:56 25,3 C 30,6 C 21,1 C 56 % 1016,4 hPa 0,0 l/m 2 min 0 min 660 W/m 25,7 km/h (4 Bft) 100,00 %
29.07.2022 16:58 25,4 C 30,6 C 21,1 C 57 % 1016,4 hPa 0,0 l/m 2 min 0 min 655 W/m 9,7 km/h (2 Bft) 97,83 %
29.07.2022 17:00 25,4 C 31,1 C 21,1 C 57 % 1016,4 hPa 0,0 l/m 2 min 0 min 646 W/m 16,1 km/h (3 Bft) 100,00 %
29.07.2022 17:02 25,4 C 31,1 C 21,1 C 58 % 1016,4 hPa 0,0 l/m 2 min 0 min 637 W/m 12,9 km/h (3 Bft) 100,00 %
29.07.2022 17:04 25,4 C 31,7 C 21,1 C 58 % 1016,4 hPa 0,0 l/m 2 min 0 min 642 W/m 9,7 km/h (2 Bft) 100,00 %
29.07.2022 17:06 25,6 C 31,1 C 21,1 C 58 % 1016,4 hPa 0,0 l/m 2 min 0 min 609 W/m 16,1 km/h (3 Bft) 98,28 %
29.07.2022 17:08 25,4 C 30,0 C 20,6 C 57 % 1016,4 hPa 0,0 l/m 2 min 0 min 496 W/m 12,9 km/h (3 Bft) 100,00 %
29.07.2022 17:10 25,3 C 30,0 C 20,6 C 58 % 1016,4 hPa 0,0 l/m 2 min 0 min 431 W/m 12,9 km/h (3 Bft) 100,00 %
29.07.2022 17:12 25,3 C 30,0 C 21,1 C 59 % 1016,4 hPa 0,0 l/m 2 min 0 min 453 W/m 16,1 km/h (3 Bft) 100,00 %
29.07.2022 17:14 25,4 C 30,6 C 21,1 C 59 % 1016,4 hPa 0,0 l/m 2 min 0 min 603 W/m 9,7 km/h (2 Bft) 100,00 %
29.07.2022 17:16 25,4 C 30,6 C 21,1 C 58 % 1016,3 hPa 0,0 l/m 2 min 0 min 609 W/m 12,9 km/h (3 Bft) 100,00 %
29.07.2022 17:18 25,5 C 31,1 C 21,1 C 59 % 1016,3 hPa 0,0 l/m 2 min 0 min 614 W/m 9,7 km/h (2 Bft) 100,00 %
29.07.2022 17:20 25,6 C 31,7 C 21,7 C 59 % 1016,3 hPa 0,0 l/m 2 min 0 min 612 W/m 16,1 km/h (3 Bft) 97,87 %
29.07.2022 17:22 25,7 C 31,7 C 21,7 C 59 % 1016,3 hPa 0,0 l/m 2 min 0 min 600 W/m 12,9 km/h (3 Bft) 100,00 %
29.07.2022 17:24 25,8 C 31,7 C 21,7 C 58 % 1016,3 hPa 0,0 l/m 2 min 0 min 593 W/m 9,7 km/h (2 Bft) 100,00 %
29.07.2022 17:26 25,9 C 31,7 C 21,7 C 57 % 1016,4 hPa 0,0 l/m 2 min 0 min 592 W/m 16,1 km/h (3 Bft) 97,87 %
29.07.2022 17:28 25,9 C 30,6 C 21,7 C 57 % 1016,4 hPa 0,0 l/m 2 min 0 min 590 W/m 16,1 km/h (3 Bft) 97,87 %
29.07.2022 17:30 25,9 C 30,0 C 21,7 C 56 % 1016,4 hPa 0,0 l/m 2 min 0 min 561 W/m 22,5 km/h (4 Bft) 97,87 %
29.07.2022 17:32 25,9 C 29,4 C 21,7 C 57 % 1016,4 hPa 0,0 l/m 2 min 0 min 478 W/m 22,5 km/h (4 Bft) 97,56 %
29.07.2022 17:34 25,8 C 28,9 C 21,7 C 57 % 1016,3 hPa 0,0 l/m 2 min 0 min 405 W/m 16,1 km/h (3 Bft) 100,00 %
29.07.2022 17:36 25,8 C 28,9 C 21,1 C 58 % 1016,4 hPa 0,0 l/m 2 min 0 min 340 W/m 9,7 km/h (2 Bft) 94,92 %
29.07.2022 17:38 25,8 C 28,9 C 21,1 C 57 % 1016,4 hPa 0,0 l/m 2 min 0 min 422 W/m 16,1 km/h (3 Bft) 100,00 %
29.07.2022 17:40 25,8 C 29,4 C 21,1 C 58 % 1016,4 hPa 0,0 l/m 2 min 0 min 538 W/m 12,9 km/h (3 Bft) 97,87 %
29.07.2022 17:42 25,7 C 29,4 C 21,1 C 59 % 1016,4 hPa 0,0 l/m 2 min 0 min 479 W/m 12,9 km/h (3 Bft) 93,62 %
29.07.2022 17:44 25,7 C 28,9 C 21,1 C 58 % 1016,3 hPa 0,0 l/m 2 min 0 min 403 W/m 9,7 km/h (2 Bft) 95,74 %
29.07.2022 17:46 25,7 C 28,9 C 21,1 C 58 % 1016,3 hPa 0,0 l/m 2 min 0 min 336 W/m 12,9 km/h (3 Bft) 91,30 %
29.07.2022 17:48 25,7 C 28,3 C 21,1 C 59 % 1016,3 hPa 0,0 l/m 2 min 0 min 370 W/m 12,9 km/h (3 Bft) 93,62 %
29.07.2022 17:50 25,7 C 28,3 C 21,1 C 59 % 1016,3 hPa 0,0 l/m 2 min 0 min 433 W/m 12,9 km/h (3 Bft) 95,74 %
29.07.2022 17:52 25,6 C 28,3 C 21,1 C 59 % 1016,3 hPa 0,0 l/m 2 min 0 min 366 W/m 6,4 km/h (2 Bft) 95,74 %
29.07.2022 17:54 25,6 C 28,3 C 21,1 C 60 % 1016,3 hPa 0,0 l/m 2 min 0 min 320 W/m 9,7 km/h (2 Bft) 95,74 %
29.07.2022 17:56 25,6 C 28,3 C 21,1 C 59 % 1016,3 hPa 0,0 l/m 2 min 0 min 369 W/m 9,7 km/h (2 Bft) 93,62 %
29.07.2022 17:58 25,6 C 27,2 C 21,1 C 59 % 1016,3 hPa 0,0 l/m 2 min 0 min 269 W/m 9,7 km/h (2 Bft) 95,65 %
29.07.2022 18:00 25,4 C 26,7 C 20,6 C 60 % 1016,3 hPa 0,0 l/m 0 min 0 min 224 W/m 12,9 km/h (3 Bft) 93,62 %
29.07.2022 18:02 25,3 C 26,1 C 20,6 C 60 % 1016,3 hPa 0,0 l/m 0 min 0 min 222 W/m 3,2 km/h (1 Bft) 95,74 %
29.07.2022 18:04 25,2 C 26,1 C 20,6 C 60 % 1016,3 hPa 0,0 l/m 0 min 0 min 232 W/m 12,9 km/h (3 Bft) 93,62 %
29.07.2022 18:08 25,1 C 25,6 C 20,6 C 61 % 1016,3 hPa 0,0 l/m 4 min 0 min 246 W/m 9,7 km/h (2 Bft) 96,08 %
29.07.2022 18:10 25,0 C 25,6 C 20,6 C 61 % 1016,4 hPa 0,0 l/m 2 min 0 min 246 W/m 9,7 km/h (2 Bft) 93,62 %
29.07.2022 18:12 25,0 C 25,6 C 20,6 C 61 % 1016,2 hPa 0,0 l/m 2 min 0 min 238 W/m 12,9 km/h (3 Bft) 95,74 %
29.07.2022 18:14 24,9 C 25,6 C 20,6 C 61 % 1016,3 hPa 0,0 l/m 0 min 0 min 224 W/m 16,1 km/h (3 Bft) 95,74 %
29.07.2022 18:16 24,9 C 25,6 C 20,6 C 61 % 1016,3 hPa 0,0 l/m 2 min 0 min 232 W/m 6,4 km/h (2 Bft) 93,62 %
29.07.2022 18:18 24,9 C 25,6 C 20,6 C 61 % 1016,3 hPa 0,0 l/m 2 min 0 min 249 W/m 12,9 km/h (3 Bft) 95,74 %
29.07.2022 18:20 24,8 C 26,1 C 20,6 C 61 % 1016,3 hPa 0,0 l/m 2 min 0 min 316 W/m 12,9 km/h (3 Bft) 95,65 %
29.07.2022 18:22 24,9 C 26,7 C 21,1 C 61 % 1016,2 hPa 0,0 l/m 2 min 0 min 367 W/m 16,1 km/h (3 Bft) 95,74 %
29.07.2022 18:24 24,9 C 27,2 C 21,1 C 61 % 1016,2 hPa 0,0 l/m 2 min 0 min 387 W/m 9,7 km/h (2 Bft) 93,62 %
29.07.2022 18:26 25,0 C 27,8 C 21,1 C 61 % 1016,2 hPa 0,0 l/m 2 min 0 min 423 W/m 9,7 km/h (2 Bft) 95,74 %
29.07.2022 18:28 25,1 C 27,8 C 21,1 C 59 % 1016,2 hPa 0,0 l/m 2 min 0 min 417 W/m 19,3 km/h (3 Bft) 97,87 %
29.07.2022 18:30 25,2 C 27,2 C 21,1 C 58 % 1016,2 hPa 0,0 l/m 2 min 0 min 309 W/m 16,1 km/h (3 Bft) 97,83 %
29.07.2022 18:32 25,2 C 26,7 C 21,1 C 58 % 1016,3 hPa 0,0 l/m 2 min 0 min 291 W/m 22,5 km/h (4 Bft) 97,87 %
29.07.2022 18:34 25,2 C 27,2 C 21,1 C 58 % 1016,2 hPa 0,0 l/m 2 min 0 min 322 W/m 6,4 km/h (2 Bft) 97,87 %
29.07.2022 18:36 25,3 C 28,3 C 21,1 C 59 % 1016,2 hPa 0,0 l/m 2 min 0 min 397 W/m 9,7 km/h (2 Bft) 97,87 %
29.07.2022 18:38 25,4 C 29,4 C 21,7 C 60 % 1016,2 hPa 0,0 l/m 2 min 0 min 432 W/m 9,7 km/h (2 Bft) 97,87 %
29.07.2022 18:40 25,6 C 30,0 C 21,7 C 58 % 1016,2 hPa 0,0 l/m 2 min 0 min 417 W/m 9,7 km/h (2 Bft) 97,87 %
29.07.2022 18:42 25,7 C 30,6 C 21,7 C 58 % 1016,2 hPa 0,0 l/m 2 min 0 min 384 W/m 12,9 km/h (3 Bft) 97,87 %
29.07.2022 18:44 25,8 C 30,0 C 21,7 C 57 % 1016,2 hPa 0,0 l/m 2 min 0 min 243 W/m 9,7 km/h (2 Bft) 95,65 %
29.07.2022 18:46 25,9 C 30,6 C 21,7 C 57 % 1016,2 hPa 0,0 l/m 2 min 0 min 326 W/m 9,7 km/h (2 Bft) 97,87 %
29.07.2022 18:48 26,0 C 30,0 C 21,7 C 56 % 1016,2 hPa 0,0 l/m 2 min 0 min 344 W/m 16,1 km/h (3 Bft) 97,87 %
29.07.2022 18:50 26,0 C 30,0 C 21,7 C 56 % 1016,3 hPa 0,0 l/m 2 min 0 min 337 W/m 19,3 km/h (3 Bft) 97,87 %
29.07.2022 18:52 26,1 C 29,4 C 21,7 C 56 % 1016,2 hPa 0,0 l/m 2 min 0 min 309 W/m 16,1 km/h (3 Bft) 97,87 %
29.07.2022 18:54 26,1 C 30,0 C 21,7 C 56 % 1016,2 hPa 0,0 l/m 2 min 0 min 320 W/m 6,4 km/h (2 Bft) 97,87 %
29.07.2022 18:56 26,1 C 30,0 C 21,1 C 56 % 1016,2 hPa 0,0 l/m 2 min 0 min 314 W/m 16,1 km/h (3 Bft) 100,00 %
29.07.2022 18:58 26,1 C 29,4 C 21,1 C 56 % 1016,2 hPa 0,0 l/m 2 min 0 min 302 W/m 12,9 km/h (3 Bft) 100,00 %
29.07.2022 19:00 26,1 C 29,4 C 21,1 C 55 % 1016,2 hPa 0,0 l/m 2 min 0 min 297 W/m 9,7 km/h (2 Bft) 100,00 %
29.07.2022 19:02 26,0 C 29,4 C 20,6 C 56 % 1016,2 hPa 0,0 l/m 2 min 0 min 293 W/m 9,7 km/h (2 Bft) 100,00 %
29.07.2022 19:04 26,0 C 29,4 C 20,6 C 56 % 1016,3 hPa 0,0 l/m 2 min 0 min 294 W/m 12,9 km/h (3 Bft) 100,00 %
29.07.2022 19:06 25,9 C 29,4 C 20,6 C 57 % 1016,2 hPa 0,0 l/m 2 min 0 min 287 W/m 9,7 km/h (2 Bft) 100,00 %
29.07.2022 19:08 25,9 C 29,4 C 20,6 C 56 % 1016,2 hPa 0,0 l/m 2 min 0 min 281 W/m 12,9 km/h (3 Bft) 100,00 %
29.07.2022 19:10 25,9 C 29,4 C 20,6 C 56 % 1016,2 hPa 0,0 l/m 2 min 0 min 271 W/m 9,7 km/h (2 Bft) 97,87 %
29.07.2022 19:12 25,9 C 29,4 C 20,6 C 56 % 1016,2 hPa 0,0 l/m 2 min 0 min 265 W/m 12,9 km/h (3 Bft) 100,00 %
29.07.2022 19:14 25,8 C 28,3 C 20,6 C 56 % 1016,2 hPa 0,0 l/m 2 min 0 min 260 W/m 16,1 km/h (3 Bft) 97,87 %
29.07.2022 19:16 25,8 C 28,3 C 20,6 C 57 % 1016,2 hPa 0,0 l/m 2 min 0 min 254 W/m 16,1 km/h (3 Bft) 100,00 %
29.07.2022 19:18 25,7 C 27,2 C 20,6 C 57 % 1016,2 hPa 0,0 l/m 2 min 0 min 252 W/m 19,3 km/h (3 Bft) 100,00 %
29.07.2022 19:20 25,6 C 26,1 C 20,0 C 58 % 1016,2 hPa 0,0 l/m 2 min 0 min 206 W/m 9,7 km/h (2 Bft) 100,00 %
29.07.2022 19:22 25,5 C 25,6 C 20,0 C 58 % 1016,2 hPa 0,0 l/m 0 min 0 min 100 W/m 19,3 km/h (3 Bft) 100,00 %
29.07.2022 19:24 25,4 C 25,0 C 20,0 C 58 % 1016,2 hPa 0,0 l/m 0 min 0 min 75 W/m 12,9 km/h (3 Bft) 97,87 %
29.07.2022 19:26 25,2 C 24,4 C 20,0 C 58 % 1016,3 hPa 0,0 l/m 0 min 0 min 122 W/m 12,9 km/h (3 Bft) 97,87 %
29.07.2022 19:28 25,2 C 23,9 C 20,0 C 59 % 1016,2 hPa 0,0 l/m 0 min 0 min 68 W/m 9,7 km/h (2 Bft) 97,87 %
29.07.2022 19:30 25,1 C 23,9 C 20,0 C 59 % 1016,2 hPa 0,0 l/m 0 min 0 min 48 W/m 9,7 km/h (2 Bft) 97,83 %
29.07.2022 19:32 25,1 C 23,9 C 19,4 C 59 % 1016,2 hPa 0,0 l/m 0 min 0 min 42 W/m 6,4 km/h (2 Bft) 97,87 %
29.07.2022 19:34 24,9 C 23,9 C 19,4 C 60 % 1016,2 hPa 0,0 l/m 0 min 0 min 43 W/m 6,4 km/h (2 Bft) 97,87 %
29.07.2022 19:36 24,9 C 23,3 C 19,4 C 59 % 1016,3 hPa 0,0 l/m 0 min 0 min 50 W/m 12,9 km/h (3 Bft) 95,74 %
29.07.2022 19:38 24,8 C 23,3 C 19,4 C 60 % 1016,3 hPa 0,0 l/m 0 min 0 min 50 W/m 16,1 km/h (3 Bft) 95,74 %
29.07.2022 19:40 24,7 C 23,3 C 19,4 C 60 % 1016,3 hPa 0,0 l/m 0 min 0 min 57 W/m 3,2 km/h (1 Bft) 97,87 %
29.07.2022 19:42 24,6 C 23,3 C 19,4 C 60 % 1016,3 hPa 0,0 l/m 0 min 0 min 64 W/m 16,1 km/h (3 Bft) 97,83 %
29.07.2022 19:44 24,5 C 23,3 C 19,4 C 61 % 1016,3 hPa 0,0 l/m 0 min 0 min 65 W/m 6,4 km/h (2 Bft) 97,87 %
29.07.2022 19:46 24,4 C 23,9 C 19,4 C 61 % 1016,3 hPa 0,0 l/m 0 min 0 min 66 W/m 12,9 km/h (3 Bft) 97,87 %
29.07.2022 19:48 24,4 C 23,9 C 19,4 C 61 % 1016,4 hPa 0,0 l/m 0 min 0 min 68 W/m 6,4 km/h (2 Bft) 97,87 %
29.07.2022 19:50 24,4 C 23,9 C 19,4 C 62 % 1016,4 hPa 0,0 l/m 0 min 0 min 70 W/m 9,7 km/h (2 Bft) 93,62 %
29.07.2022 19:52 24,4 C 23,9 C 19,4 C 61 % 1016,4 hPa 0,0 l/m 0 min 0 min 70 W/m 12,9 km/h (3 Bft) 97,87 %
29.07.2022 19:54 24,4 C 23,9 C 19,4 C 62 % 1016,4 hPa 0,0 l/m 0 min 0 min 70 W/m 6,4 km/h (2 Bft) 97,83 %
29.07.2022 19:56 24,3 C 23,9 C 19,4 C 62 % 1016,4 hPa 0,0 l/m 0 min 0 min 70 W/m 9,7 km/h (2 Bft) 100,00 %
29.07.2022 19:58 24,4 C 23,9 C 19,4 C 62 % 1016,4 hPa 0,0 l/m 0 min 0 min 72 W/m 6,4 km/h (2 Bft) 100,00 %
29.07.2022 20:00 24,3 C 23,9 C 19,4 C 62 % 1016,4 hPa 0,0 l/m 0 min 0 min 72 W/m 6,4 km/h (2 Bft) 100,00 %
29.07.2022 20:02 24,3 C 23,9 C 19,4 C 62 % 1016,5 hPa 0,0 l/m 0 min 0 min 72 W/m 6,4 km/h (2 Bft) 100,00 %
29.07.2022 20:04 24,3 C 23,9 C 19,4 C 62 % 1016,5 hPa 0,0 l/m 0 min 0 min 72 W/m 9,7 km/h (2 Bft) 100,00 %
29.07.2022 20:06 24,3 C 23,3 C 19,4 C 62 % 1016,5 hPa 0,0 l/m 0 min 0 min 72 W/m 9,7 km/h (2 Bft) 100,00 %
29.07.2022 20:08 24,3 C 23,9 C 19,4 C 62 % 1016,5 hPa 0,0 l/m 0 min 0 min 74 W/m 6,4 km/h (2 Bft) 100,00 %
29.07.2022 20:10 24,3 C 23,3 C 19,4 C 62 % 1016,5 hPa 0,0 l/m 0 min 0 min 73 W/m 9,7 km/h (2 Bft) 100,00 %
29.07.2022 20:12 24,2 C 23,3 C 19,4 C 62 % 1016,6 hPa 0,0 l/m 0 min 0 min 69 W/m 9,7 km/h (2 Bft) 97,87 %
29.07.2022 20:14 24,2 C 23,3 C 19,4 C 62 % 1016,6 hPa 0,0 l/m 0 min 0 min 68 W/m 3,2 km/h (1 Bft) 97,87 %
29.07.2022 20:16 24,2 C 23,3 C 19,4 C 62 % 1016,6 hPa 0,0 l/m 0 min 0 min 65 W/m 6,4 km/h (2 Bft) 95,74 %
29.07.2022 20:18 24,2 C 23,3 C 19,4 C 61 % 1016,7 hPa 0,0 l/m 0 min 0 min 62 W/m 9,7 km/h (2 Bft) 97,83 %
29.07.2022 20:20 24,2 C 23,3 C 19,4 C 62 % 1016,6 hPa 0,0 l/m 0 min 0 min 56 W/m 3,2 km/h (1 Bft) 97,87 %
29.07.2022 20:22 24,2 C 23,3 C 18,9 C 62 % 1016,6 hPa 0,0 l/m 0 min 0 min 54 W/m 6,4 km/h (2 Bft) 97,87 %
29.07.2022 20:24 24,1 C 23,3 C 18,9 C 62 % 1016,6 hPa 0,0 l/m 0 min 0 min 53 W/m 3,2 km/h (1 Bft) 97,87 %
29.07.2022 20:26 24,1 C 23,3 C 18,9 C 62 % 1016,6 hPa 0,0 l/m 0 min 0 min 51 W/m 9,7 km/h (2 Bft) 95,74 %
29.07.2022 20:28 24,1 C 23,3 C 18,9 C 62 % 1016,6 hPa 0,0 l/m 0 min 0 min 49 W/m 0,0 km/h (0 Bft) 97,87 %
29.07.2022 20:30 24,1 C 23,3 C 18,9 C 64 % 1016,6 hPa 0,0 l/m 0 min 0 min 48 W/m 3,2 km/h (1 Bft) 97,83 %
29.07.2022 20:32 24,1 C 22,8 C 18,9 C 64 % 1016,6 hPa 0,0 l/m 0 min 0 min 47 W/m 3,2 km/h (1 Bft) 97,87 %
29.07.2022 20:34 24,0 C 22,8 C 18,3 C 65 % 1016,6 hPa 0,0 l/m 0 min 0 min 46 W/m 3,2 km/h (1 Bft) 97,87 %
29.07.2022 20:36 23,9 C 22,8 C 18,3 C 65 % 1016,6 hPa 0,0 l/m 0 min 0 min 46 W/m 3,2 km/h (1 Bft) 95,74 %
29.07.2022 20:38 23,9 C 22,8 C 18,3 C 64 % 1016,7 hPa 0,0 l/m 0 min 0 min 46 W/m 6,4 km/h (2 Bft) 97,87 %
29.07.2022 20:40 23,8 C 22,8 C 18,3 C 63 % 1016,6 hPa 0,0 l/m 0 min 0 min 44 W/m 3,2 km/h (1 Bft) 97,92 %
29.07.2022 20:42 23,8 C 22,8 C 18,3 C 64 % 1016,7 hPa 0,0 l/m 2 min 0 min 46 W/m 6,4 km/h (2 Bft) 97,83 %
29.07.2022 20:44 23,7 C 22,8 C 18,3 C 63 % 1016,7 hPa 0,0 l/m 2 min 0 min 48 W/m 6,4 km/h (2 Bft) 93,62 %
29.07.2022 20:46 23,7 C 22,8 C 18,3 C 63 % 1016,7 hPa 0,0 l/m 2 min 0 min 48 W/m 9,7 km/h (2 Bft) 97,87 %
29.07.2022 20:48 23,6 C 22,8 C 18,3 C 62 % 1016,7 hPa 0,0 l/m 2 min 0 min 46 W/m 9,7 km/h (2 Bft) 95,74 %
29.07.2022 20:50 23,6 C 22,8 C 18,3 C 62 % 1016,7 hPa 0,0 l/m 2 min 0 min 43 W/m 3,2 km/h (1 Bft) 93,62 %
29.07.2022 20:52 23,6 C 22,8 C 18,3 C 63 % 1016,7 hPa 0,0 l/m 2 min 0 min 41 W/m 3,2 km/h (1 Bft) 97,83 %
29.07.2022 20:54 23,6 C 22,8 C 18,3 C 63 % 1016,7 hPa 0,0 l/m 2 min 0 min 39 W/m 3,2 km/h (1 Bft) 97,87 %
29.07.2022 20:56 23,6 C 22,8 C 18,3 C 63 % 1016,7 hPa 0,0 l/m 2 min 0 min 36 W/m 3,2 km/h (1 Bft) 97,87 %
29.07.2022 20:58 23,6 C 22,8 C 18,3 C 63 % 1016,7 hPa 0,0 l/m 2 min 0 min 34 W/m 3,2 km/h (1 Bft) 97,87 %
29.07.2022 21:00 23,6 C 22,8 C 18,3 C 64 % 1016,7 hPa 0,0 l/m 2 min 0 min 31 W/m 3,2 km/h (1 Bft) 100,00 %
29.07.2022 21:02 23,6 C 22,8 C 18,3 C 64 % 1016,7 hPa 0,0 l/m 2 min 0 min 28 W/m 3,2 km/h (1 Bft) 100,00 %
29.07.2022 21:04 23,5 C 22,8 C 18,3 C 64 % 1016,8 hPa 0,0 l/m 2 min 0 min 25 W/m 3,2 km/h (1 Bft) 100,00 %
29.07.2022 21:06 23,5 C 22,2 C 18,3 C 64 % 1016,7 hPa 0,0 l/m 2 min 0 min 20 W/m 3,2 km/h (1 Bft) 100,00 %
29.07.2022 21:08 23,4 C 22,2 C 18,3 C 64 % 1016,7 hPa 0,0 l/m 0 min 0 min 17 W/m 0,0 km/h (0 Bft) 97,87 %
29.07.2022 21:10 23,4 C 22,2 C 18,3 C 64 % 1016,7 hPa 0,0 l/m 0 min 0 min 13 W/m 3,2 km/h (1 Bft) 97,87 %
29.07.2022 21:12 23,4 C 22,2 C 18,3 C 63 % 1016,6 hPa 0,0 l/m 0 min 0 min 12 W/m 0,0 km/h (0 Bft) 97,87 %
29.07.2022 21:14 23,3 C 22,2 C 17,8 C 64 % 1016,7 hPa 0,0 l/m 0 min 0 min 11 W/m 0,0 km/h (0 Bft) 97,87 %
29.07.2022 21:16 23,3 C 22,2 C 17,8 C 66 % 1016,7 hPa 0,0 l/m 0 min 0 min 9 W/m 3,2 km/h (1 Bft) 97,87 %
29.07.2022 21:18 23,3 C 21,7 C 17,8 C 66 % 1016,7 hPa 0,0 l/m 0 min 0 min 7 W/m 3,2 km/h (1 Bft) 97,83 %
29.07.2022 21:20 23,3 C 21,7 C 17,8 C 65 % 1016,7 hPa 0,0 l/m 0 min 0 min 7 W/m 3,2 km/h (1 Bft) 97,87 %
29.07.2022 21:22 23,3 C 21,7 C 17,8 C 65 % 1016,7 hPa 0,0 l/m 0 min 0 min 7 W/m 0,0 km/h (0 Bft) 97,87 %
29.07.2022 21:24 23,2 C 21,7 C 17,8 C 65 % 1016,8 hPa 0,0 l/m 0 min 0 min 7 W/m 0,0 km/h (0 Bft) 95,74 %
29.07.2022 21:26 23,2 C 21,7 C 17,8 C 66 % 1016,8 hPa 0,0 l/m 0 min 0 min 7 W/m 3,2 km/h (1 Bft) 95,74 %
29.07.2022 21:28 23,2 C 21,7 C 17,8 C 66 % 1016,8 hPa 0,0 l/m 0 min 0 min 5 W/m 0,0 km/h (0 Bft) 95,65 %
29.07.2022 21:30 23,2 C 21,7 C 17,2 C 66 % 1016,9 hPa 0,0 l/m 0 min 0 min 3 W/m 0,0 km/h (0 Bft) 97,87 %
29.07.2022 21:32 23,1 C 21,1 C 17,2 C 67 % 1016,9 hPa 0,0 l/m 0 min 0 min 0 W/m 3,2 km/h (1 Bft) 95,74 %
29.07.2022 21:34 23,1 C 21,1 C 17,2 C 68 % 1016,9 hPa 0,0 l/m 0 min 0 min 0 W/m 3,2 km/h (1 Bft) 95,74 %
29.07.2022 21:36 23,1 C 21,1 C 17,2 C 68 % 1016,9 hPa 0,0 l/m 0 min 0 min 0 W/m 0,0 km/h (0 Bft) 95,74 %
29.07.2022 21:38 23,0 C 21,1 C 17,2 C 68 % 1016,9 hPa 0,0 l/m 0 min 0 min 0 W/m 0,0 km/h (0 Bft) 93,62 %
29.07.2022 21:40 22,9 C 21,1 C 17,2 C 68 % 1016,9 hPa 0,0 l/m 0 min 0 min 0 W/m 0,0 km/h (0 Bft) 93,48 %
29.07.2022 21:42 22,9 C 21,1 C 17,2 C 68 % 1016,9 hPa 0,0 l/m 0 min 0 min 0 W/m 3,2 km/h (1 Bft) 95,74 %
29.07.2022 21:44 22,9 C 21,1 C 17,2 C 67 % 1017,0 hPa 0,0 l/m 0 min 0 min 0 W/m 0,0 km/h (0 Bft) 95,74 %
29.07.2022 21:46 22,8 C 21,1 C 17,2 C 66 % 1017,0 hPa 0,0 l/m 0 min 0 min 0 W/m 0,0 km/h (0 Bft) 95,74 %
29.07.2022 21:48 22,7 C 21,1 C 17,2 C 67 % 1017,1 hPa 0,0 l/m 0 min 0 min 0 W/m 0,0 km/h (0 Bft) 95,74 %
29.07.2022 21:50 22,7 C 21,1 C 17,2 C 67 % 1017,1 hPa 0,0 l/m 0 min 0 min 0 W/m 0,0 km/h (0 Bft) 95,74 %
29.07.2022 21:52 22,7 C 21,1 C 17,2 C 68 % 1017,2 hPa 0,0 l/m 0 min 0 min 0 W/m 0,0 km/h (0 Bft) 95,65 %
29.07.2022 21:54 22,7 C 21,1 C 16,7 C 69 % 1017,2 hPa 0,0 l/m 0 min 0 min 0 W/m 0,0 km/h (0 Bft) 95,74 %
29.07.2022 21:56 22,6 C 21,1 C 16,7 C 69 % 1017,2 hPa 0,0 l/m 0 min 0 min 0 W/m 0,0 km/h (0 Bft) 97,87 %
29.07.2022 21:58 22,6 C 20,6 C 16,7 C 69 % 1017,2 hPa 0,0 l/m 0 min 0 min 0 W/m 0,0 km/h (0 Bft) 95,74 %
29.07.2022 22:00 22,6 C 20,6 C 16,7 C 69 % 1017,2 hPa 0,0 l/m 0 min 0 min 0 W/m 0,0 km/h (0 Bft) 100,00 %
29.07.2022 22:02 22,5 C 20,6 C 16,7 C 69 % 1017,2 hPa 0,0 l/m 0 min 0 min 0 W/m 0,0 km/h (0 Bft) 95,74 %
29.07.2022 22:04 22,4 C 20,6 C 16,7 C 69 % 1017,3 hPa 0,0 l/m 0 min 0 min 0 W/m 0,0 km/h (0 Bft) 97,87 %
29.07.2022 22:06 22,3 C 20,6 C 16,7 C 69 % 1017,2 hPa 0,0 l/m 0 min 0 min 0 W/m 0,0 km/h (0 Bft) 100,00 %
29.07.2022 22:08 22,3 C 20,6 C 16,7 C 68 % 1017,3 hPa 0,0 l/m 0 min 0 min 0 W/m 0,0 km/h (0 Bft) 100,00 %
29.07.2022 22:10 22,3 C 20,6 C 16,7 C 68 % 1017,2 hPa 0,0 l/m 0 min 0 min 0 W/m 0,0 km/h (0 Bft) 100,00 %
29.07.2022 22:12 22,2 C 20,6 C 16,7 C 69 % 1017,3 hPa 0,0 l/m 0 min 0 min 0 W/m 0,0 km/h (0 Bft) 100,00 %
29.07.2022 22:14 22,2 C 20,6 C 16,7 C 70 % 1017,3 hPa 0,0 l/m 0 min 0 min 0 W/m 0,0 km/h (0 Bft) 97,87 %
29.07.2022 22:16 22,1 C 20,6 C 16,1 C 70 % 1017,3 hPa 0,0 l/m 0 min 0 min 0 W/m 0,0 km/h (0 Bft) 100,00 %
29.07.2022 22:18 22,1 C 20,6 C 16,1 C 70 % 1017,2 hPa 0,0 l/m 0 min 0 min 0 W/m 0,0 km/h (0 Bft) 100,00 %
29.07.2022 22:20 22,0 C 20,6 C 16,1 C 70 % 1017,3 hPa 0,0 l/m 0 min 0 min 0 W/m 0,0 km/h (0 Bft) 100,00 %
29.07.2022 22:22 22,0 C 20,0 C 16,1 C 70 % 1017,3 hPa 0,0 l/m 0 min 0 min 0 W/m 3,2 km/h (1 Bft) 100,00 %
29.07.2022 22:24 21,9 C 20,0 C 16,1 C 70 % 1017,3 hPa 0,0 l/m 0 min 0 min 0 W/m 3,2 km/h (1 Bft) 100,00 %
29.07.2022 22:26 21,9 C 20,0 C 16,7 C 70 % 1017,4 hPa 0,0 l/m 0 min 0 min 0 W/m 3,2 km/h (1 Bft) 100,00 %
29.07.2022 22:28 21,9 C 20,0 C 16,7 C 70 % 1017,4 hPa 0,0 l/m 0 min 0 min 0 W/m 3,2 km/h (1 Bft) 100,00 %
29.07.2022 22:30 21,8 C 20,0 C 16,7 C 70 % 1017,4 hPa 0,0 l/m 0 min 0 min 0 W/m 0,0 km/h (0 Bft) 100,00 %
29.07.2022 22:32 21,8 C 20,0 C 16,7 C 70 % 1017,4 hPa 0,0 l/m 0 min 0 min 0 W/m 0,0 km/h (0 Bft) 100,00 %
29.07.2022 22:34 21,7 C 20,0 C 16,7 C 70 % 1017,4 hPa 0,0 l/m 0 min 0 min 0 W/m 3,2 km/h (1 Bft) 100,00 %
29.07.2022 22:36 21,7 C 20,0 C 16,1 C 70 % 1017,4 hPa 0,0 l/m 0 min 0 min 0 W/m 3,2 km/h (1 Bft) 100,00 %
29.07.2022 22:38 21,6 C 20,0 C 16,1 C 70 % 1017,4 hPa 0,0 l/m 0 min 0 min 0 W/m 3,2 km/h (1 Bft) 100,00 %
29.07.2022 22:40 21,6 C 20,0 C 16,1 C 71 % 1017,4 hPa 0,0 l/m 0 min 0 min 0 W/m 3,2 km/h (1 Bft) 100,00 %
29.07.2022 22:42 21,6 C 20,0 C 16,1 C 71 % 1017,5 hPa 0,0 l/m 0 min 0 min 0 W/m 0,0 km/h (0 Bft) 100,00 %
29.07.2022 22:44 21,5 C 20,0 C 16,1 C 72 % 1017,5 hPa 0,0 l/m 0 min 0 min 0 W/m 3,2 km/h (1 Bft) 100,00 %
29.07.2022 22:46 21,5 C 20,0 C 16,1 C 72 % 1017,5 hPa 0,0 l/m 0 min 0 min 0 W/m 3,2 km/h (1 Bft) 97,87 %
29.07.2022 22:48 21,4 C 20,0 C 16,1 C 71 % 1017,5 hPa 0,0 l/m 0 min 0 min 0 W/m 3,2 km/h (1 Bft) 95,74 %
29.07.2022 22:50 21,4 C 20,0 C 16,1 C 71 % 1017,5 hPa 0,0 l/m 0 min 0 min 0 W/m 3,2 km/h (1 Bft) 100,00 %
29.07.2022 22:52 21,3 C 20,0 C 16,1 C 71 % 1017,5 hPa 0,0 l/m 0 min 0 min 0 W/m 3,2 km/h (1 Bft) 97,83 %
29.07.2022 22:54 21,3 C 20,0 C 16,1 C 71 % 1017,5 hPa 0,0 l/m 0 min 0 min 0 W/m 3,2 km/h (1 Bft) 100,00 %
29.07.2022 22:56 21,3 C 20,0 C 16,1 C 71 % 1017,6 hPa 0,0 l/m 0 min 0 min 0 W/m 3,2 km/h (1 Bft) 97,87 %
29.07.2022 22:58 21,2 C 20,0 C 16,1 C 71 % 1017,6 hPa 0,0 l/m 0 min 0 min 0 W/m 3,2 km/h (1 Bft) 95,74 %
29.07.2022 23:00 21,2 C 20,0 C 16,1 C 71 % 1017,6 hPa 0,0 l/m 0 min 0 min 0 W/m 3,2 km/h (1 Bft) 97,87 %
29.07.2022 23:02 21,1 C 20,0 C 16,1 C 72 % 1017,6 hPa 0,0 l/m 0 min 0 min 0 W/m 3,2 km/h (1 Bft) 95,74 %
29.07.2022 23:04 21,1 C 20,0 C 16,1 C 72 % 1017,6 hPa 0,0 l/m 0 min 0 min 0 W/m 3,2 km/h (1 Bft) 97,83 %
29.07.2022 23:06 21,1 C 20,0 C 16,1 C 72 % 1017,6 hPa 0,0 l/m 0 min 0 min 0 W/m 0,0 km/h (0 Bft) 97,87 %
29.07.2022 23:08 21,1 C 20,0 C 16,1 C 73 % 1017,6 hPa 0,0 l/m 0 min 0 min 0 W/m 3,2 km/h (1 Bft) 97,87 %
29.07.2022 23:10 21,1 C 19,4 C 16,1 C 73 % 1017,7 hPa 0,0 l/m 0 min 0 min 0 W/m 0,0 km/h (0 Bft) 97,87 %
29.07.2022 23:12 21,0 C 19,4 C 16,1 C 73 % 1017,7 hPa 0,0 l/m 0 min 0 min 0 W/m 0,0 km/h (0 Bft) 95,74 %
29.07.2022 23:14 21,0 C 19,4 C 16,1 C 73 % 1017,8 hPa 0,0 l/m 0 min 0 min 0 W/m 0,0 km/h (0 Bft) 97,87 %
29.07.2022 23:16 20,9 C 19,4 C 16,1 C 73 % 1017,7 hPa 0,0 l/m 0 min 0 min 0 W/m 0,0 km/h (0 Bft) 97,83 %
29.07.2022 23:18 20,9 C 19,4 C 16,1 C 73 % 1017,7 hPa 0,0 l/m 0 min 0 min 0 W/m 0,0 km/h (0 Bft) 97,87 %
29.07.2022 23:20 20,9 C 19,4 C 16,1 C 74 % 1017,7 hPa 0,0 l/m 0 min 0 min 0 W/m 0,0 km/h (0 Bft) 93,62 %
29.07.2022 23:22 20,9 C 19,4 C 16,1 C 74 % 1017,7 hPa 0,0 l/m 0 min 0 min 0 W/m 0,0 km/h (0 Bft) 95,74 %
29.07.2022 23:24 20,9 C 19,4 C 16,1 C 74 % 1017,7 hPa 0,0 l/m 0 min 0 min 0 W/m 3,2 km/h (1 Bft) 97,87 %
29.07.2022 23:26 20,8 C 19,4 C 16,1 C 73 % 1017,8 hPa 0,0 l/m 0 min 0 min 0 W/m 3,2 km/h (1 Bft) 95,74 %
29.07.2022 23:28 20,8 C 19,4 C 16,1 C 74 % 1017,8 hPa 0,0 l/m 0 min 0 min 0 W/m 3,2 km/h (1 Bft) 95,65 %
29.07.2022 23:30 20,8 C 19,4 C 16,1 C 74 % 1017,8 hPa 0,0 l/m 0 min 0 min 0 W/m 3,2 km/h (1 Bft) 93,62 %
29.07.2022 23:32 20,8 C 19,4 C 16,1 C 74 % 1017,8 hPa 0,0 l/m 0 min 0 min 0 W/m 0,0 km/h (0 Bft) 97,87 %
29.07.2022 23:34 20,8 C 19,4 C 16,1 C 74 % 1017,8 hPa 0,0 l/m 0 min 0 min 0 W/m 3,2 km/h (1 Bft) 95,74 %
29.07.2022 23:36 20,8 C 19,4 C 16,1 C 74 % 1017,9 hPa 0,0 l/m 0 min 0 min 0 W/m 0,0 km/h (0 Bft) 97,87 %
29.07.2022 23:38 20,7 C 19,4 C 16,1 C 74 % 1017,9 hPa 0,0 l/m 0 min 0 min 0 W/m 0,0 km/h (0 Bft) 91,49 %
29.07.2022 23:40 20,7 C 19,4 C 16,1 C 74 % 1017,9 hPa 0,0 l/m 0 min 0 min 0 W/m 0,0 km/h (0 Bft) 95,65 %
29.07.2022 23:42 20,7 C 19,4 C 16,1 C 74 % 1017,9 hPa 0,0 l/m 0 min 0 min 0 W/m 0,0 km/h (0 Bft) 95,74 %
29.07.2022 23:44 20,7 C 19,4 C 15,6 C 75 % 1017,9 hPa 0,0 l/m 0 min 0 min 0 W/m 6,4 km/h (2 Bft) 97,87 %
29.07.2022 23:46 20,7 C 19,4 C 15,6 C 75 % 1017,8 hPa 0,0 l/m 0 min 0 min 0 W/m 3,2 km/h (1 Bft) 95,74 %
29.07.2022 23:48 20,6 C 19,4 C 15,6 C 75 % 1017,9 hPa 0,0 l/m 0 min 0 min 0 W/m 0,0 km/h (0 Bft) 95,74 %
29.07.2022 23:50 20,6 C 19,4 C 15,6 C 75 % 1017,8 hPa 0,0 l/m 0 min 0 min 0 W/m 3,2 km/h (1 Bft) 100,00 %
29.07.2022 23:52 20,6 C 19,4 C 15,6 C 75 % 1017,9 hPa 0,0 l/m 0 min 0 min 0 W/m 0,0 km/h (0 Bft) 97,87 %
29.07.2022 23:54 20,6 C 19,4 C 15,6 C 75 % 1017,9 hPa 0,0 l/m 0 min 0 min 0 W/m 0,0 km/h (0 Bft) 95,65 %
29.07.2022 23:56 20,6 C 18,9 C 15,6 C 76 % 1017,9 hPa 0,0 l/m 0 min 0 min 0 W/m 0,0 km/h (0 Bft) 97,87 %
29.07.2022 23:58 20,6 C 18,9 C 15,6 C 76 % 1017,9 hPa 0,0 l/m 0 min 0 min 0 W/m 3,2 km/h (1 Bft) 95,74 %
_ Min-Zeit 07:32 05:48 06:00 19:00 03:28 - - - - 03:46 15:32
Minimum _ 15,1 C 13,3 C 9,4 C 55 % 1015,1 hPa - - - - 0,0 km/h (0 Bft) 89,13 %
_ Max-Zeit 18:52 17:04 12:28 09:24 23:36 05:50 12:08 06:08 14:40 15:02 00:00
Maximum _ 26,1 C 31,7 C 23,3 C 94 % 1017,9 hPa 0,4 l/m 4 min 4 min 1016 W/m 29,0 km/h
N-NW (5 Bft)
100,00 %
Durchschnitt _ 20,2 C 20,3 C 15,8 C 73 % 1016,4 hPa #2,8 l/m #6:02 h #2:14 h 296 W/m 8,0 km/h (2 Bft) 97,67 %
© 2022 W. Hausmann